ETD814 OMAA-RJBB

Flight info

Callsign ETD814
Flight time 9h 23m
Altitude 35000
Route KANIP N318 GEVED N881 RASKI L639 BPL A791 IBUDA/N0500F370 A791 JJS Q19 CEA B465 CTG A599 LINSO/K0915S1130 A599 SGM A581 EPGAL/K0895S1190 A581 WHA R343 PK W116 JTN G327 LAMEN/N0489F390 A593 SADLI Y590 BEDAR Y591 FUE Y35 IGLEV
Aircraft A35K/H-SDE2E3GHIJ3J4J5LM1ORWXY/LB1D1

Departure

Time 2026-04-29 16:42
Airport Zayed International Airport (OMAA)

Arrival

Time 2026-04-30 02:05
Airport Kansai International Airport (RJBB)
Time Latitude Longitude Altitude Speed Heading
2026-04-29 16:34 24.44987 54.64732 97 ft 0 kts 26°
2026-04-29 16:40 24.43445 54.51840 16 ft 0 kts 71°
2026-04-29 16:41 24.43744 54.51837 17 ft 0 kts 341°
2026-04-29 16:42 24.43586 54.60558 2057 ft 4011 kts 89°
2026-04-29 16:42 24.44842 54.64653 99 ft 0 kts 356°
2026-04-29 16:42 24.44843 54.64653 98 ft 0 kts 356°
2026-04-29 16:43 24.44987 54.64732 98 ft 0 kts 26°
2026-04-29 17:01 24.44980 54.64728 98 ft 2 kts 25°
2026-04-29 17:02 24.44979 54.64727 98 ft 2 kts 25°
2026-04-29 17:02 24.44965 54.64721 99 ft 2 kts 22°
2026-04-29 17:02 24.44949 54.64715 97 ft 2 kts 18°
2026-04-29 17:02 24.44933 54.64710 97 ft 2 kts 12°
2026-04-29 17:03 24.44917 54.64708 96 ft 2 kts
2026-04-29 17:03 24.44900 54.64709 96 ft 2 kts 347°
2026-04-29 17:03 24.44885 54.64715 98 ft 2 kts 326°
2026-04-29 17:03 24.44873 54.64727 97 ft 2 kts 307°
2026-04-29 17:04 24.44868 54.64736 97 ft 1 kts 303°
2026-04-29 17:07 24.44874 54.64725 97 ft 5 kts 303°
2026-04-29 17:07 24.44894 54.64688 98 ft 6 kts 299°
2026-04-29 17:07 24.44909 54.64642 98 ft 6 kts 277°
2026-04-29 17:07 24.44893 54.64599 100 ft 6 kts 227°
2026-04-29 17:08 24.44854 54.64591 101 ft 6 kts 174°
2026-04-29 17:08 24.44809 54.64604 99 ft 7 kts 162°
2026-04-29 17:08 24.44761 54.64627 99 ft 8 kts 153°
2026-04-29 17:08 24.44713 54.64666 100 ft 9 kts 136°
2026-04-29 17:09 24.44673 54.64723 101 ft 10 kts 128°
2026-04-29 17:09 24.44628 54.64785 99 ft 11 kts 128°
2026-04-29 17:09 24.44581 54.64851 100 ft 12 kts 128°
2026-04-29 17:09 24.44530 54.64924 100 ft 12 kts 127°
2026-04-29 17:10 24.44476 54.65002 98 ft 13 kts 127°
2026-04-29 17:10 24.44419 54.65083 100 ft 14 kts 127°
2026-04-29 17:10 24.44356 54.65166 100 ft 14 kts 142°
2026-04-29 17:10 24.44276 54.65139 100 ft 13 kts 218°
2026-04-29 17:11 24.44202 54.65076 100 ft 14 kts 218°
2026-04-29 17:11 24.44110 54.64997 100 ft 19 kts 218°
2026-04-29 17:11 24.44003 54.64904 100 ft 20 kts 219°
2026-04-29 17:11 24.43892 54.64812 100 ft 19 kts 217°
2026-04-29 17:12 24.43809 54.64754 99 ft 11 kts 191°
2026-04-29 17:12 24.43723 54.64833 100 ft 23 kts 126°
2026-04-29 17:12 24.43603 54.65005 100 ft 33 kts 128°
2026-04-29 17:12 24.43505 54.65143 100 ft 31 kts 128°
2026-04-29 17:13 24.43346 54.65366 100 ft 27 kts 127°
2026-04-29 17:13 24.43229 54.65532 99 ft 28 kts 128°
2026-04-29 17:13 24.43111 54.65697 97 ft 28 kts 128°
2026-04-29 17:13 24.42993 54.65863 101 ft 27 kts 128°
2026-04-29 17:14 24.42876 54.66028 99 ft 27 kts 128°
2026-04-29 17:14 24.42760 54.66192 100 ft 27 kts 128°
2026-04-29 17:14 24.42693 54.66317 100 ft 14 kts 128°
2026-04-29 17:14 24.42621 54.66394 100 ft 15 kts 136°
2026-04-29 17:15 24.42554 54.66482 100 ft 15 kts 128°
2026-04-29 17:15 24.42487 54.66575 101 ft 16 kts 128°
2026-04-29 17:15 24.42418 54.66675 100 ft 17 kts 128°
2026-04-29 17:15 24.42345 54.66777 100 ft 17 kts 131°
2026-04-29 17:16 24.42255 54.66775 99 ft 14 kts 217°
2026-04-29 17:16 24.42186 54.66700 99 ft 10 kts 258°
2026-04-29 17:16 24.42196 54.66678 100 ft 0 kts 308°
2026-04-29 17:16 24.42220 54.66645 99 ft 19 kts 308°
2026-04-29 17:17 24.42423 54.66362 101 ft 76 kts 308°
2026-04-29 17:17 24.42860 54.65745 100 ft 127 kts 308°
2026-04-29 17:17 24.43493 54.64851 98 ft 171 kts 305°
2026-04-29 17:17 24.44203 54.63757 606 ft 170 kts 308°
2026-04-29 17:18 24.44891 54.62727 1179 ft 163 kts 308°
2026-04-29 17:18 24.45560 54.61763 1672 ft 154 kts 310°
2026-04-29 17:18 24.46204 54.60835 2008 ft 155 kts 309°
2026-04-29 17:18 24.46861 54.59858 2241 ft 164 kts 310°
2026-04-29 17:19 24.47616 54.58867 2415 ft 175 kts 313°
2026-04-29 17:19 24.48430 54.57805 2582 ft 189 kts 311°
2026-04-29 17:19 24.49283 54.56656 2752 ft 202 kts 311°
2026-04-29 17:19 24.50192 54.55398 2914 ft 219 kts 310°
2026-04-29 17:20 24.51159 54.54045 3209 ft 229 kts 310°
2026-04-29 17:20 24.52152 54.52648 3661 ft 232 kts 310°
2026-04-29 17:20 24.53138 54.51264 4156 ft 234 kts 310°
2026-04-29 17:20 24.54148 54.49837 4619 ft 238 kts 309°
2026-04-29 17:21 24.55165 54.48396 5090 ft 240 kts 309°
2026-04-29 17:21 24.56195 54.46939 5601 ft 241 kts 309°
2026-04-29 17:21 24.57224 54.45484 6096 ft 242 kts 308°
2026-04-29 17:21 24.58267 54.44009 6582 ft 245 kts 309°
2026-04-29 17:22 24.59473 54.42678 7019 ft 247 kts 325°
2026-04-29 17:22 24.61067 54.41976 7466 ft 252 kts 351°
2026-04-29 17:22 24.62807 54.42171 7885 ft 260 kts 18°
2026-04-29 17:22 24.64429 54.43089 8356 ft 265 kts 28°
2026-04-29 17:23 24.66008 54.44169 8832 ft 268 kts 29°
2026-04-29 17:23 24.67594 54.45260 9309 ft 270 kts 28°
2026-04-29 17:23 24.69201 54.46348 9774 ft 272 kts 28°
2026-04-29 17:23 24.70831 54.47442 10217 ft 275 kts 28°
2026-04-29 17:24 24.72464 54.48566 10620 ft 279 kts 32°
2026-04-29 17:24 24.73791 54.50109 10997 ft 287 kts 58°
2026-04-29 17:24 24.74675 54.52092 11455 ft 290 kts 65°
2026-04-29 17:24 24.75475 54.54145 11911 ft 292 kts 65°
2026-04-29 17:25 24.76275 54.56197 12360 ft 294 kts 65°
2026-04-29 17:25 24.77097 54.58281 12780 ft 298 kts 65°
2026-04-29 17:25 24.77940 54.60406 13019 ft 309 kts 65°
2026-04-29 17:25 24.78821 54.62614 13271 ft 319 kts 65°
2026-04-29 17:26 24.79688 54.64854 13652 ft 325 kts 69°
2026-04-29 17:26 24.80117 54.67304 14000 ft 329 kts 92°
2026-04-29 17:26 24.79650 54.69763 14377 ft 330 kts 111°
2026-04-29 17:26 24.78814 54.72135 14763 ft 333 kts 114°
2026-04-29 17:27 24.77941 54.74511 15163 ft 336 kts 114°
2026-04-29 17:27 24.77063 54.76911 15588 ft 339 kts 114°
2026-04-29 17:27 24.75921 54.79149 15948 ft 339 kts 132°
2026-04-29 17:27 24.74143 54.80796 16333 ft 334 kts 156°
2026-04-29 17:28 24.71938 54.81565 16526 ft 334 kts 179°
2026-04-29 17:28 24.69638 54.81326 16701 ft 334 kts 201°
2026-04-29 17:28 24.67583 54.80167 16900 ft 337 kts 219°
2026-04-29 17:28 24.65520 54.78827 17058 ft 350 kts 205°
2026-04-29 17:29 24.63131 54.78188 17237 ft 366 kts 188°
2026-04-29 17:29 24.60540 54.78370 17405 ft 382 kts 171°
2026-04-29 17:29 24.58001 54.79453 17560 ft 399 kts 153°
2026-04-29 17:29 24.56495 54.80645 17679 ft 409 kts 142°
2026-04-29 17:30 24.53709 54.83556 17921 ft 421 kts 139°
2026-04-29 17:30 24.51598 54.85836 18094 ft 428 kts 139°
2026-04-29 17:30 24.49437 54.88146 18237 ft 435 kts 139°
2026-04-29 17:30 24.47269 54.90450 18391 ft 442 kts 139°
2026-04-29 17:31 24.45032 54.92817 18540 ft 448 kts 139°
2026-04-29 17:31 24.42775 54.95200 18792 ft 452 kts 139°
2026-04-29 17:31 24.40500 54.97599 19063 ft 454 kts 139°
2026-04-29 17:31 24.38220 55.00001 19346 ft 456 kts 139°
2026-04-29 17:32 24.35906 55.02436 19622 ft 459 kts 140°
2026-04-29 17:32 24.33643 55.04871 19898 ft 462 kts 136°
2026-04-29 17:32 24.31617 55.07639 20148 ft 468 kts 126°
2026-04-29 17:32 24.29935 55.10726 20444 ft 472 kts 122°
2026-04-29 17:33 24.28350 55.13841 20709 ft 475 kts 122°
2026-04-29 17:33 24.26738 55.17014 20970 ft 477 kts 122°
2026-04-29 17:33 24.25659 55.19130 21139 ft 478 kts 122°
2026-04-29 17:33 24.23474 55.23398 21486 ft 481 kts 122°
2026-04-29 17:34 24.22384 55.25522 21662 ft 483 kts 122°
2026-04-29 17:34 24.20729 55.28743 21926 ft 485 kts 122°
2026-04-29 17:34 24.19063 55.31981 22183 ft 487 kts 122°
2026-04-29 17:34 24.17480 55.35281 22438 ft 491 kts 118°
2026-04-29 17:35 24.15158 55.40963 22840 ft 496 kts 116°
2026-04-29 17:35 24.13382 55.45648 23175 ft 499 kts 115°
2026-04-29 17:35 24.12060 55.49178 23412 ft 501 kts 115°
2026-04-29 17:36 24.10744 55.52675 23607 ft 503 kts 115°
2026-04-29 17:36 24.09398 55.56221 23807 ft 505 kts 115°
2026-04-29 17:36 24.08037 55.59777 24011 ft 507 kts 116°
2026-04-29 17:36 24.06663 55.63346 24210 ft 509 kts 116°
2026-04-29 17:37 24.05256 55.66919 24405 ft 509 kts 117°
2026-04-29 17:37 24.03712 55.70356 24602 ft 510 kts 121°
2026-04-29 17:37 24.02040 55.73781 24796 ft 511 kts 122°
2026-04-29 17:37 24.00329 55.77199 24996 ft 512 kts 122°
2026-04-29 17:38 23.98608 55.80644 25185 ft 514 kts 121°
2026-04-29 17:38 23.96928 55.84053 25411 ft 516 kts 121°
2026-04-29 17:38 23.95235 55.87533 25575 ft 518 kts 121°
2026-04-29 17:38 23.93551 55.91031 25764 ft 520 kts 120°
2026-04-29 17:39 23.91867 55.94549 25964 ft 522 kts 120°
2026-04-29 17:39 23.90185 55.98070 26149 ft 524 kts 120°
2026-04-29 17:39 23.88489 56.01619 26347 ft 525 kts 120°
2026-04-29 17:39 23.86798 56.05161 26539 ft 527 kts 120°
2026-04-29 17:40 23.85115 56.08680 26739 ft 529 kts 120°
2026-04-29 17:40 23.83402 56.12253 26926 ft 531 kts 120°
2026-04-29 17:40 23.81681 56.15836 27071 ft 534 kts 120°
2026-04-29 17:40 23.79945 56.19445 27306 ft 534 kts 120°
2026-04-29 17:41 23.78234 56.23000 27500 ft 535 kts 120°
2026-04-29 17:41 23.76495 56.26613 27691 ft 537 kts 120°
2026-04-29 17:41 23.74754 56.30229 27871 ft 538 kts 120°
2026-04-29 17:41 23.73004 56.33862 28049 ft 540 kts 120°
2026-04-29 17:42 23.71250 56.37498 28219 ft 541 kts 120°
2026-04-29 17:42 23.69518 56.41087 28387 ft 543 kts 120°
2026-04-29 17:42 23.67751 56.44746 28555 ft 544 kts 120°
2026-04-29 17:42 23.65977 56.48416 28714 ft 545 kts 120°
2026-04-29 17:43 23.64201 56.52087 28868 ft 547 kts 120°
2026-04-29 17:43 23.62425 56.55757 29014 ft 548 kts 120°
2026-04-29 17:43 23.60639 56.59442 29199 ft 548 kts 120°
2026-04-29 17:43 23.58879 56.63073 29420 ft 548 kts 120°
2026-04-29 17:44 23.57096 56.66748 29631 ft 548 kts 120°
2026-04-29 17:44 23.55309 56.70430 29871 ft 547 kts 120°
2026-04-29 17:44 23.53522 56.74108 30038 ft 548 kts 120°
2026-04-29 17:44 23.51758 56.77733 30240 ft 547 kts 120°
2026-04-29 17:45 23.49976 56.81394 30516 ft 545 kts 120°
2026-04-29 17:45 23.48200 56.85043 30780 ft 543 kts 120°
2026-04-29 17:45 23.46426 56.88682 31049 ft 541 kts 120°
2026-04-29 17:45 23.44687 56.92250 31300 ft 540 kts 120°
2026-04-29 17:46 23.42921 56.95869 31556 ft 538 kts 120°
2026-04-29 17:46 23.41171 56.99453 31823 ft 537 kts 120°
2026-04-29 17:46 23.39414 57.03048 32092 ft 535 kts 120°
2026-04-29 17:46 23.37663 57.06627 32354 ft 533 kts 120°
2026-04-29 17:47 23.35946 57.10208 32621 ft 532 kts 119°
2026-04-29 17:47 23.34297 57.13820 32884 ft 531 kts 118°
2026-04-29 17:47 23.32703 57.17389 33147 ft 530 kts 118°
2026-04-29 17:47 23.31103 57.20990 33405 ft 528 kts 118°
2026-04-29 17:48 23.29482 57.24623 33647 ft 528 kts 118°
2026-04-29 17:48 23.27873 57.28204 33987 ft 525 kts 118°
2026-04-29 17:48 23.26280 57.31731 34225 ft 524 kts 118°
2026-04-29 17:48 23.24669 57.35283 34400 ft 523 kts 118°
2026-04-29 17:49 23.23051 57.38839 34614 ft 522 kts 118°
2026-04-29 17:49 23.21439 57.42376 34835 ft 522 kts 118°
2026-04-29 17:49 23.19821 57.45922 34892 ft 525 kts 118°
2026-04-29 17:50 23.16573 57.53034 34890 ft 527 kts 118°
2026-04-29 17:50 23.13312 57.60174 34898 ft 526 kts 118°
2026-04-29 17:51 23.10055 57.67296 34889 ft 526 kts 118°
2026-04-29 17:51 23.06806 57.74388 34879 ft 526 kts 118°
2026-04-29 17:52 23.03604 57.81542 34860 ft 526 kts 114°
2026-04-29 17:52 23.01890 57.89275 34860 ft 529 kts 94°
2026-04-29 17:53 23.01694 57.97238 34845 ft 530 kts 90°
2026-04-29 17:53 23.01745 58.05266 34853 ft 530 kts 90°
2026-04-29 17:54 23.01795 58.13221 34842 ft 531 kts 90°
2026-04-29 17:54 23.01805 58.21249 34850 ft 531 kts 90°
2026-04-29 17:55 23.01793 58.29270 34843 ft 531 kts 90°
2026-04-29 17:55 23.01776 58.37298 34845 ft 531 kts 90°
2026-04-29 17:56 23.01917 58.45277 34839 ft 531 kts 88°
2026-04-29 17:56 23.02251 58.53311 34840 ft 532 kts 88°
2026-04-29 17:57 23.02569 58.61337 34832 ft 532 kts 88°
2026-04-29 17:57 23.02845 58.69316 34825 ft 532 kts 88°
2026-04-29 17:58 23.03104 58.77364 34817 ft 532 kts 88°
2026-04-29 17:58 23.03356 58.85411 34818 ft 532 kts 88°
2026-04-29 17:59 23.03604 58.93396 34812 ft 532 kts 88°
2026-04-29 17:59 23.03854 59.01436 34803 ft 532 kts 88°
2026-04-29 18:00 23.04097 59.09497 34791 ft 532 kts 88°
2026-04-29 18:00 23.04326 59.17472 34791 ft 532 kts 88°
2026-04-29 18:01 23.04555 59.25523 34786 ft 532 kts 88°
2026-04-29 18:01 23.04780 59.33514 34778 ft 531 kts 88°
2026-04-29 18:02 23.04987 59.41545 34772 ft 531 kts 89°
2026-04-29 18:02 23.05109 59.49584 34767 ft 531 kts 89°
2026-04-29 18:03 23.05212 59.57550 34768 ft 531 kts 89°
2026-04-29 18:03 23.05323 59.65580 34771 ft 531 kts 89°
2026-04-29 18:04 23.05437 59.73586 34768 ft 531 kts 89°
2026-04-29 18:04 23.05549 59.81611 34775 ft 531 kts 89°
2026-04-29 18:05 23.05656 59.89612 34778 ft 532 kts 89°
2026-04-29 18:05 23.05756 59.97656 34777 ft 532 kts 89°
2026-04-29 18:06 23.05855 60.05691 34779 ft 532 kts 89°
2026-04-29 18:06 23.05951 60.13732 34779 ft 532 kts 89°
2026-04-29 18:07 23.06041 60.21736 34779 ft 532 kts 89°
2026-04-29 18:07 23.06127 60.29782 34779 ft 532 kts 89°
2026-04-29 18:08 23.06209 60.37777 34779 ft 532 kts 89°
2026-04-29 18:08 23.06286 60.45812 34783 ft 532 kts 89°
2026-04-29 18:09 23.06360 60.53864 34780 ft 532 kts 89°
2026-04-29 18:09 23.06430 60.61872 34780 ft 532 kts 89°
2026-04-29 18:10 23.06501 60.69942 34780 ft 532 kts 89°
2026-04-29 18:10 23.06563 60.77976 34778 ft 532 kts 89°
2026-04-29 18:11 23.06620 60.85980 34780 ft 532 kts 89°
2026-04-29 18:11 23.06674 60.94021 34778 ft 532 kts 89°
2026-04-29 18:12 23.06725 61.02078 34778 ft 532 kts 89°
2026-04-29 18:12 23.06772 61.10069 34777 ft 532 kts 89°
2026-04-29 18:13 23.06815 61.18135 34775 ft 532 kts 89°
2026-04-29 18:13 23.06854 61.26134 34772 ft 532 kts 89°
2026-04-29 18:14 23.06889 61.34203 34774 ft 533 kts 89°
2026-04-29 18:14 23.06920 61.42266 34780 ft 533 kts 89°
2026-04-29 18:15 23.06948 61.50282 34771 ft 533 kts 89°
2026-04-29 18:15 23.06972 61.58298 34777 ft 533 kts 89°
2026-04-29 18:16 23.06986 61.66374 34774 ft 533 kts 89°
2026-04-29 18:16 23.06997 61.74376 34777 ft 533 kts 89°
2026-04-29 18:17 23.07009 61.82449 34773 ft 533 kts 90°
2026-04-29 18:17 23.07010 61.90475 34775 ft 533 kts 90°
2026-04-29 18:18 23.07007 61.98546 34773 ft 532 kts 90°
2026-04-29 18:18 23.07002 62.06551 34773 ft 532 kts 90°
2026-04-29 18:19 23.06993 62.14605 34771 ft 532 kts 90°
2026-04-29 18:19 23.06980 62.22660 34771 ft 532 kts 90°
2026-04-29 18:20 23.06963 62.30672 34772 ft 532 kts 90°
2026-04-29 18:20 23.06946 62.37374 34769 ft 532 kts 90°
2026-04-29 18:21 23.06922 62.45429 34772 ft 532 kts 90°
2026-04-29 18:21 23.06893 62.53471 34770 ft 532 kts 90°
2026-04-29 18:22 23.06861 62.61483 34773 ft 532 kts 90°
2026-04-29 18:22 23.06824 62.69536 34771 ft 532 kts 90°
2026-04-29 18:23 23.06783 62.77575 34772 ft 532 kts 90°
2026-04-29 18:23 23.06739 62.85574 34766 ft 532 kts 90°
2026-04-29 18:24 23.06690 62.93614 34766 ft 532 kts 90°
2026-04-29 18:24 23.06637 63.01606 34768 ft 532 kts 90°
2026-04-29 18:25 23.06581 63.09646 34767 ft 532 kts 90°
2026-04-29 18:25 23.06520 63.17683 34771 ft 532 kts 90°
2026-04-29 18:26 23.06455 63.25729 34772 ft 532 kts 90°
2026-04-29 18:26 23.06386 63.33719 34773 ft 532 kts 90°
2026-04-29 18:27 23.06312 63.41785 34771 ft 532 kts 90°
2026-04-29 18:27 23.06236 63.49765 34771 ft 532 kts 90°
2026-04-29 18:28 23.06154 63.57807 34770 ft 531 kts 90°
2026-04-29 18:28 23.06069 63.65859 34767 ft 531 kts 90°
2026-04-29 18:29 23.05980 63.73833 34769 ft 531 kts 90°
2026-04-29 18:29 23.05887 63.81870 34764 ft 531 kts 90°
2026-04-29 18:30 23.05489 63.89894 34769 ft 532 kts 95°
2026-04-29 18:30 23.04728 63.97822 34770 ft 532 kts 96°
2026-04-29 18:31 23.03897 64.05839 34762 ft 532 kts 96°
2026-04-29 18:31 23.03065 64.13833 34761 ft 532 kts 96°
2026-04-29 18:32 23.02245 64.21769 34763 ft 532 kts 96°
2026-04-29 18:32 23.01005 64.33746 34764 ft 532 kts 96°
2026-04-29 18:33 23.00178 64.41690 34766 ft 532 kts 96°
2026-04-29 18:33 22.99340 64.49694 34769 ft 532 kts 96°
2026-04-29 18:34 22.98640 64.56347 34761 ft 532 kts 96°
2026-04-29 18:34 22.97657 64.65650 34765 ft 532 kts 96°
2026-04-29 18:35 22.96814 64.73575 34760 ft 532 kts 96°
2026-04-29 18:35 22.95975 64.81561 34765 ft 531 kts 94°
2026-04-29 18:36 22.95795 64.89555 34764 ft 530 kts 89°
2026-04-29 18:36 22.95829 64.97528 34765 ft 530 kts 88°
2026-04-29 18:37 22.95894 65.05531 34762 ft 530 kts 88°
2026-04-29 18:37 22.95946 65.13553 34765 ft 530 kts 88°
2026-04-29 18:38 22.95985 65.21516 34768 ft 530 kts 88°
2026-04-29 18:38 22.96016 65.29544 34768 ft 530 kts 88°
2026-04-29 18:39 22.96044 65.37507 34761 ft 531 kts 88°
2026-04-29 18:39 22.96068 65.45511 34763 ft 530 kts 88°
2026-04-29 18:40 22.96088 65.53537 34761 ft 530 kts 88°
2026-04-29 18:40 22.96104 65.61513 34757 ft 530 kts 88°
2026-04-29 18:41 22.96124 65.77548 34765 ft 530 kts 88°
2026-04-29 18:42 22.96128 65.85522 34760 ft 530 kts 88°
2026-04-29 18:42 22.96129 65.93528 34759 ft 530 kts 88°
2026-04-29 18:43 22.96125 66.01511 34759 ft 530 kts 88°
2026-04-29 18:43 22.96117 66.09514 34766 ft 530 kts 88°
2026-04-29 18:44 22.96105 66.17534 34760 ft 530 kts 88°
2026-04-29 18:44 22.96089 66.25552 34761 ft 531 kts 88°
2026-04-29 18:45 22.96069 66.33535 34761 ft 531 kts 88°
2026-04-29 18:45 22.96045 66.41530 34760 ft 531 kts 88°
2026-04-29 18:46 22.96017 66.49562 34760 ft 531 kts 88°
2026-04-29 18:46 22.95985 66.57591 34761 ft 531 kts 88°
2026-04-29 18:47 22.95949 66.65562 34759 ft 531 kts 88°
2026-04-29 18:47 22.95909 66.73596 34757 ft 531 kts 88°
2026-04-29 18:48 22.95865 66.81567 34757 ft 531 kts 88°
2026-04-29 18:48 22.95817 66.89604 34757 ft 531 kts 88°
2026-04-29 18:49 22.95766 66.97641 34756 ft 531 kts 88°
2026-04-29 18:49 22.95770 67.05608 34765 ft 531 kts 87°
2026-04-29 18:50 22.95802 67.13634 34759 ft 531 kts 87°
2026-04-29 18:50 22.95824 67.21664 34758 ft 531 kts 88°
2026-04-29 18:51 22.95834 67.29652 34758 ft 531 kts 88°
2026-04-29 18:51 22.95838 67.37682 34765 ft 532 kts 88°
2026-04-29 18:52 22.95838 67.45725 34762 ft 532 kts 88°
2026-04-29 18:52 22.95833 67.53709 34760 ft 532 kts 88°
2026-04-29 18:53 22.95825 67.61756 34762 ft 532 kts 88°
2026-04-29 18:53 22.95813 67.69747 34766 ft 532 kts 88°
2026-04-29 18:54 22.95797 67.77806 34754 ft 533 kts 88°
2026-04-29 18:54 22.95777 67.85798 34756 ft 533 kts 88°
2026-04-29 18:55 22.95772 67.93858 34760 ft 533 kts 87°
2026-04-29 18:55 22.95784 68.01915 34760 ft 533 kts 87°
2026-04-29 18:56 22.95792 68.09976 34759 ft 533 kts 87°
2026-04-29 18:56 22.95793 68.17976 34763 ft 533 kts 87°
2026-04-29 18:57 22.95788 68.26050 34760 ft 533 kts 87°
2026-04-29 18:57 22.95779 68.34081 34760 ft 534 kts 87°
2026-04-29 18:58 22.95697 68.42156 34762 ft 535 kts 90°
2026-04-29 18:58 22.95210 68.50182 34762 ft 536 kts 92°
2026-04-29 18:59 22.94640 68.58282 34766 ft 536 kts 91°
2026-04-29 18:59 22.94127 68.66336 34769 ft 536 kts 91°
2026-04-29 19:00 22.93647 68.74419 34770 ft 537 kts 91°
2026-04-29 19:00 22.93175 68.82456 34769 ft 537 kts 91°
2026-04-29 19:01 22.92694 68.90558 34771 ft 537 kts 91°
2026-04-29 19:01 22.92207 68.98650 34772 ft 537 kts 91°
2026-04-29 19:02 22.91802 69.05328 34768 ft 537 kts 91°
2026-04-29 19:02 22.91222 69.14792 34768 ft 537 kts 91°
2026-04-29 19:03 22.90723 69.22875 34773 ft 537 kts 91°
2026-04-29 19:03 22.90221 69.30928 34771 ft 537 kts 91°
2026-04-29 19:04 22.89713 69.39025 34774 ft 538 kts 91°
2026-04-29 19:04 22.89203 69.47082 34775 ft 537 kts 91°
2026-04-29 19:05 22.88686 69.55173 34775 ft 537 kts 91°
2026-04-29 19:05 22.88164 69.63283 34778 ft 537 kts 91°
2026-04-29 19:06 22.87642 69.71353 34774 ft 538 kts 91°
2026-04-29 19:07 22.86933 69.83493 34779 ft 537 kts 90°
2026-04-29 19:07 22.86471 69.91598 34774 ft 537 kts 90°
2026-04-29 19:08 22.86001 69.99653 34772 ft 538 kts 90°
2026-04-29 19:08 22.85520 70.07747 34774 ft 538 kts 90°
2026-04-29 19:09 22.85033 70.15852 34775 ft 538 kts 90°
2026-04-29 19:09 22.84547 70.23897 34775 ft 538 kts 90°
2026-04-29 19:10 22.84057 70.31933 34770 ft 538 kts 90°
2026-04-29 19:10 22.83639 70.38727 34771 ft 538 kts 90°
2026-04-29 19:11 22.83141 70.46786 34773 ft 538 kts 90°
2026-04-29 19:11 22.82635 70.54891 34770 ft 537 kts 90°
2026-04-29 19:12 22.82125 70.62988 34767 ft 537 kts 90°
2026-04-29 19:12 22.81616 70.71006 34769 ft 537 kts 90°
2026-04-29 19:13 22.81099 70.79116 34772 ft 537 kts 90°
2026-04-29 19:13 22.81423 70.87090 34771 ft 529 kts 78°
2026-04-29 19:14 22.82517 70.94976 34769 ft 528 kts 76°
2026-04-29 19:14 22.83722 71.02811 34771 ft 528 kts 76°
2026-04-29 19:15 22.84926 71.10680 34770 ft 529 kts 76°
2026-04-29 19:15 22.86109 71.18564 34764 ft 529 kts 76°
2026-04-29 19:16 22.87272 71.26404 34770 ft 529 kts 76°
2026-04-29 19:16 22.88439 71.34309 34761 ft 529 kts 76°
2026-04-29 19:17 22.89594 71.42158 34764 ft 530 kts 76°
2026-04-29 19:17 22.90754 71.50062 34760 ft 530 kts 76°
2026-04-29 19:18 22.91912 71.57976 34759 ft 530 kts 76°
2026-04-29 19:18 22.93059 71.65848 34753 ft 530 kts 76°
2026-04-29 19:19 22.94210 71.73773 34751 ft 530 kts 76°
2026-04-29 19:19 22.95355 71.81684 34751 ft 531 kts 76°
2026-04-29 19:20 22.96490 71.89557 34740 ft 531 kts 76°
2026-04-29 19:20 22.97628 71.97480 34742 ft 531 kts 76°
2026-04-29 19:21 22.98766 72.05423 34751 ft 531 kts 76°
2026-04-29 19:21 22.99891 72.13310 34736 ft 531 kts 76°
2026-04-29 19:22 23.01020 72.21261 34743 ft 531 kts 76°
2026-04-29 19:22 23.02134 72.29127 34744 ft 532 kts 76°
2026-04-29 19:23 23.03257 72.37093 34743 ft 532 kts 76°
2026-04-29 19:23 23.04374 72.45040 34747 ft 532 kts 76°
2026-04-29 19:24 23.05486 72.52982 34749 ft 532 kts 76°
2026-04-29 19:24 23.06588 72.60897 34747 ft 533 kts 76°
2026-04-29 19:25 23.07225 72.68949 34746 ft 536 kts 81°
2026-04-29 19:25 23.07690 72.77050 34746 ft 537 kts 81°
2026-04-29 19:26 23.08122 72.85105 34745 ft 537 kts 81°
2026-04-29 19:26 23.08560 72.93206 34744 ft 537 kts 81°
2026-04-29 19:27 23.09002 73.01329 34744 ft 537 kts 81°
2026-04-29 19:27 23.09438 73.09386 34747 ft 537 kts 81°
2026-04-29 19:28 23.09873 73.17468 34750 ft 537 kts 81°
2026-04-29 19:28 23.10304 73.25586 34754 ft 537 kts 81°
2026-04-29 19:29 23.10731 73.33709 34752 ft 537 kts 81°
2026-04-29 19:29 23.11152 73.41783 34757 ft 538 kts 81°
2026-04-29 19:30 23.11571 73.49915 34763 ft 538 kts 81°
2026-04-29 19:30 23.11982 73.57989 34758 ft 538 kts 81°
2026-04-29 19:31 23.12393 73.66118 34765 ft 539 kts 81°
2026-04-29 19:31 23.12800 73.74251 34767 ft 538 kts 81°
2026-04-29 19:32 23.13202 73.82389 34776 ft 539 kts 81°
2026-04-29 19:32 23.13598 73.90455 34779 ft 539 kts 81°
2026-04-29 19:33 23.13993 73.98623 34781 ft 539 kts 82°
2026-04-29 19:33 23.14382 74.06751 34781 ft 539 kts 82°
2026-04-29 19:34 23.14766 74.14847 34791 ft 539 kts 81°
2026-04-29 19:34 23.15148 74.22982 34792 ft 539 kts 81°
2026-04-29 19:35 23.15526 74.31143 34800 ft 539 kts 81°
2026-04-29 19:35 23.15859 74.39245 34796 ft 540 kts 83°
2026-04-29 19:36 23.16008 74.47408 34800 ft 541 kts 83°
2026-04-29 19:36 23.16129 74.55595 34804 ft 542 kts 83°
2026-04-29 19:37 23.16275 74.63804 34812 ft 542 kts 83°
2026-04-29 19:37 23.16432 74.71960 34811 ft 542 kts 83°
2026-04-29 19:38 23.16591 74.80176 34816 ft 542 kts 83°
2026-04-29 19:38 23.16742 74.88336 34820 ft 543 kts 83°
2026-04-29 19:39 23.16891 74.96559 34822 ft 543 kts 83°
2026-04-29 19:39 23.17035 75.04772 34825 ft 543 kts 83°
2026-04-29 19:40 23.17174 75.12994 34823 ft 543 kts 83°
2026-04-29 19:40 23.17308 75.21164 34823 ft 543 kts 83°
2026-04-29 19:41 23.17439 75.29390 34825 ft 543 kts 83°
2026-04-29 19:41 23.17565 75.37550 34828 ft 543 kts 84°
2026-04-29 19:42 23.17687 75.45787 34830 ft 543 kts 84°
2026-04-29 19:42 23.17804 75.53996 34829 ft 542 kts 84°
2026-04-29 19:43 23.17917 75.62152 34832 ft 542 kts 84°
2026-04-29 19:43 23.18026 75.70366 34830 ft 542 kts 84°
2026-04-29 19:44 23.18131 75.78520 34830 ft 542 kts 84°
2026-04-29 19:44 23.18232 75.86741 34827 ft 542 kts 84°
2026-04-29 19:45 23.18328 75.94926 34828 ft 542 kts 84°
2026-04-29 19:45 23.18460 76.03073 34831 ft 540 kts 82°
2026-04-29 19:46 23.19075 76.11195 34828 ft 537 kts 78°
2026-04-29 19:46 23.19833 76.19285 34826 ft 537 kts 78°
2026-04-29 19:47 23.20519 76.27354 34831 ft 538 kts 79°
2026-04-29 19:47 23.21151 76.35480 34823 ft 538 kts 79°
2026-04-29 19:48 23.21759 76.43554 34829 ft 539 kts 79°
2026-04-29 19:48 23.22371 76.51707 34824 ft 539 kts 79°
2026-04-29 19:49 23.22979 76.59836 34819 ft 540 kts 79°
2026-04-29 19:49 23.23583 76.67940 34823 ft 540 kts 79°
2026-04-29 19:50 23.24186 76.76092 34829 ft 540 kts 80°
2026-04-29 19:50 23.24786 76.84254 34831 ft 541 kts 80°
2026-04-29 19:51 23.25378 76.92377 34822 ft 541 kts 80°
2026-04-29 19:51 23.25970 77.00560 34820 ft 541 kts 80°
2026-04-29 19:52 23.26552 77.08672 34812 ft 541 kts 80°
2026-04-29 19:52 23.27136 77.16849 34812 ft 541 kts 80°
2026-04-29 19:53 23.27715 77.25033 34804 ft 541 kts 80°
2026-04-29 19:53 23.28222 77.33171 34803 ft 545 kts 85°
2026-04-29 19:54 23.27878 77.45584 34803 ft 548 kts 88°
2026-04-29 19:54 23.27517 77.53821 34805 ft 548 kts 88°
2026-04-29 19:55 23.27154 77.62098 34805 ft 547 kts 88°
2026-04-29 19:55 23.26798 77.70380 34800 ft 547 kts 88°
2026-04-29 19:56 23.26445 77.78641 34795 ft 546 kts 88°
2026-04-29 19:56 23.26090 77.86846 34791 ft 546 kts 88°
2026-04-29 19:57 23.25790 77.93715 34784 ft 545 kts 88°
2026-04-29 19:57 23.25365 78.03299 34783 ft 545 kts 88°
2026-04-29 19:58 23.24993 78.11542 34781 ft 544 kts 88°
2026-04-29 19:58 23.24618 78.19785 34779 ft 544 kts 88°
2026-04-29 19:59 23.24242 78.27950 34777 ft 544 kts 88°
2026-04-29 19:59 23.23861 78.36169 34773 ft 543 kts 88°
2026-04-29 20:00 23.23541 78.43000 34774 ft 543 kts 89°
2026-04-29 20:00 23.23152 78.51186 34775 ft 542 kts 89°
2026-04-29 20:01 23.22759 78.59378 34774 ft 541 kts 89°
2026-04-29 20:01 23.22366 78.67484 34772 ft 539 kts 89°
2026-04-29 20:02 23.21971 78.75641 34773 ft 538 kts 89°
2026-04-29 20:02 23.21816 78.82409 34769 ft 537 kts 86°
2026-04-29 20:03 23.21752 78.91842 34765 ft 538 kts 86°
2026-04-29 20:03 23.21668 78.99997 34759 ft 539 kts 87°
2026-04-29 20:04 23.21548 79.08163 34760 ft 540 kts 87°
2026-04-29 20:04 23.21415 79.16267 34753 ft 540 kts 88°
2026-04-29 20:05 23.21275 79.24476 34746 ft 540 kts 88°
2026-04-29 20:05 23.21133 79.32653 34741 ft 540 kts 88°
2026-04-29 20:06 23.20988 79.40797 34736 ft 540 kts 88°
2026-04-29 20:06 23.20838 79.48967 34736 ft 540 kts 88°
2026-04-29 20:07 23.20684 79.57154 34729 ft 540 kts 88°
2026-04-29 20:07 23.20420 79.65285 34728 ft 540 kts 89°
2026-04-29 20:08 23.20099 79.72056 34725 ft 539 kts 90°
2026-04-29 20:08 23.19655 79.81524 34726 ft 538 kts 90°
2026-04-29 20:09 23.19296 79.89657 34723 ft 536 kts 89°
2026-04-29 20:09 23.18946 79.97704 34719 ft 535 kts 90°
2026-04-29 20:10 23.18591 80.05794 34720 ft 535 kts 90°
2026-04-29 20:10 23.18208 80.13869 34718 ft 534 kts 90°
2026-04-29 20:11 23.17781 80.21905 34722 ft 534 kts 90°
2026-04-29 20:11 23.17349 80.29974 34717 ft 533 kts 90°
2026-04-29 20:12 23.16925 80.37989 34716 ft 533 kts 90°
2026-04-29 20:12 23.16498 80.46035 34724 ft 532 kts 90°
2026-04-29 20:13 23.16067 80.54073 34718 ft 531 kts 90°
2026-04-29 20:13 23.15637 80.62036 34722 ft 529 kts 90°
2026-04-29 20:14 23.15202 80.70021 34724 ft 528 kts 90°
2026-04-29 20:14 23.14764 80.77992 34726 ft 527 kts 90°
2026-04-29 20:15 23.14339 80.85892 34726 ft 525 kts 91°
2026-04-29 20:15 23.13907 80.93809 34721 ft 524 kts 91°
2026-04-29 20:16 23.13476 81.01658 34722 ft 522 kts 91°
2026-04-29 20:16 23.13041 81.09526 34721 ft 521 kts 91°
2026-04-29 20:17 23.12600 81.17390 34717 ft 519 kts 91°
2026-04-29 20:17 23.12158 81.25215 34719 ft 518 kts 92°
2026-04-29 20:18 23.11716 81.32974 34718 ft 517 kts 92°
2026-04-29 20:18 23.11268 81.40775 34717 ft 516 kts 92°
2026-04-29 20:19 23.10817 81.48569 34711 ft 515 kts 92°
2026-04-29 20:19 23.10365 81.56309 34711 ft 514 kts 92°
2026-04-29 20:20 23.09910 81.64034 34710 ft 514 kts 93°
2026-04-29 20:20 23.09449 81.71791 34710 ft 513 kts 93°
2026-04-29 20:21 23.08986 81.79520 34714 ft 512 kts 93°
2026-04-29 20:21 23.08522 81.87192 34713 ft 511 kts 93°
2026-04-29 20:22 23.08052 81.94916 34714 ft 511 kts 94°
2026-04-29 20:22 23.07580 82.02628 34712 ft 510 kts 94°
2026-04-29 20:23 23.07109 82.10257 34710 ft 510 kts 94°
2026-04-29 20:23 23.06631 82.17938 35109 ft 506 kts 94°
2026-04-29 20:24 23.06431 82.21761 35405 ft 505 kts 92°
2026-04-29 20:24 23.06271 82.25529 35659 ft 505 kts 92°
2026-04-29 20:24 23.06123 82.29345 35897 ft 505 kts 92°
2026-04-29 20:24 23.05975 82.33166 36109 ft 505 kts 92°
2026-04-29 20:25 23.05822 82.36994 36331 ft 506 kts 92°
2026-04-29 20:25 23.05662 82.40815 36520 ft 507 kts 92°
2026-04-29 20:25 23.05496 82.44642 36684 ft 508 kts 92°
2026-04-29 20:25 23.05329 82.48436 36715 ft 512 kts 92°
2026-04-29 20:26 23.04981 82.56189 36711 ft 513 kts 92°
2026-04-29 20:26 23.04628 82.63929 36717 ft 512 kts 92°
2026-04-29 20:27 23.04336 82.70314 36716 ft 512 kts 92°
2026-04-29 20:27 23.03917 82.79354 36717 ft 511 kts 92°
2026-04-29 20:28 23.03559 82.87016 36719 ft 511 kts 92°
2026-04-29 20:28 23.03195 82.94723 36726 ft 510 kts 92°
2026-04-29 20:29 23.02830 83.02352 36733 ft 509 kts 93°
2026-04-29 20:29 23.02458 83.10057 36733 ft 508 kts 93°
2026-04-29 20:30 23.02085 83.17716 36745 ft 507 kts 93°
2026-04-29 20:30 23.01711 83.25315 36750 ft 507 kts 93°
2026-04-29 20:31 23.01330 83.32968 36764 ft 506 kts 94°
2026-04-29 20:31 23.00946 83.40626 36767 ft 507 kts 94°
2026-04-29 20:32 23.00562 83.48216 36777 ft 507 kts 94°
2026-04-29 20:32 23.00236 83.54576 36793 ft 507 kts 94°
2026-04-29 20:33 22.99775 83.63507 36793 ft 506 kts 94°
2026-04-29 20:33 22.99380 83.71101 36804 ft 506 kts 94°
2026-04-29 20:34 22.98978 83.78725 36814 ft 505 kts 94°
2026-04-29 20:34 22.98573 83.86355 36815 ft 505 kts 94°
2026-04-29 20:35 22.98168 83.93916 36822 ft 504 kts 94°
2026-04-29 20:35 22.97758 84.01523 36837 ft 503 kts 94°
2026-04-29 20:36 22.97343 84.09119 36839 ft 503 kts 94°
2026-04-29 20:36 22.96914 84.16666 36841 ft 502 kts 95°
2026-04-29 20:37 22.96365 84.24227 36851 ft 501 kts 96°
2026-04-29 20:37 22.95793 84.31716 36853 ft 500 kts 96°
2026-04-29 20:38 22.95233 84.39222 36855 ft 498 kts 96°
2026-04-29 20:38 22.94679 84.46738 36864 ft 497 kts 96°
2026-04-29 20:39 22.94128 84.54218 36862 ft 496 kts 96°
2026-04-29 20:39 22.93576 84.61651 36870 ft 496 kts 96°
2026-04-29 20:40 22.93019 84.69098 36873 ft 495 kts 96°
2026-04-29 20:40 22.92457 84.76557 36874 ft 495 kts 96°
2026-04-29 20:41 22.91893 84.84002 36882 ft 495 kts 96°
2026-04-29 20:41 22.91329 84.91399 36880 ft 494 kts 96°
2026-04-29 20:42 22.90758 84.98834 36886 ft 494 kts 96°
2026-04-29 20:42 22.90184 85.06274 36889 ft 494 kts 96°
2026-04-29 20:43 22.89613 85.13646 36885 ft 494 kts 96°
2026-04-29 20:43 22.89036 85.21105 36892 ft 494 kts 96°
2026-04-29 20:44 22.88464 85.28510 36889 ft 495 kts 96°
2026-04-29 20:44 22.87886 85.35949 36896 ft 495 kts 96°
2026-04-29 20:45 22.87303 85.43401 36890 ft 495 kts 96°
2026-04-29 20:45 22.86719 85.50804 36890 ft 495 kts 96°
2026-04-29 20:46 22.86127 85.58257 36891 ft 495 kts 96°
2026-04-29 20:46 22.85536 85.65665 36881 ft 495 kts 96°
2026-04-29 20:47 22.85040 85.71850 36871 ft 495 kts 96°
2026-04-29 20:47 22.84440 85.79296 36864 ft 495 kts 97°
2026-04-29 20:48 22.83837 85.86733 36856 ft 494 kts 97°
2026-04-29 20:48 22.83235 85.94110 36855 ft 494 kts 97°
2026-04-29 20:49 22.82526 86.02752 36852 ft 494 kts 97°
2026-04-29 20:49 22.82012 86.08978 36837 ft 494 kts 96°
2026-04-29 20:50 22.81400 86.16357 36843 ft 494 kts 97°
2026-04-29 20:50 22.80880 86.23799 36836 ft 494 kts 95°
2026-04-29 20:51 22.80521 86.31254 36828 ft 494 kts 94°
2026-04-29 20:51 22.80157 86.38705 36828 ft 494 kts 94°
2026-04-29 20:52 22.79763 86.46110 36819 ft 495 kts 94°
2026-04-29 20:52 22.79351 86.53575 36818 ft 495 kts 94°
2026-04-29 20:53 22.78937 86.60970 36813 ft 494 kts 94°
2026-04-29 20:53 22.78518 86.68411 36812 ft 494 kts 94°
2026-04-29 20:54 22.77884 86.79570 36801 ft 494 kts 94°
2026-04-29 20:55 22.77460 86.86965 36799 ft 494 kts 94°
2026-04-29 20:55 22.77029 86.94413 36797 ft 495 kts 93°
2026-04-29 20:56 22.76595 87.01861 36787 ft 495 kts 93°
2026-04-29 20:56 22.76158 87.09315 36789 ft 495 kts 93°
2026-04-29 20:57 22.75717 87.16760 36792 ft 496 kts 93°
2026-04-29 20:57 22.75272 87.24185 36786 ft 496 kts 93°
2026-04-29 20:58 22.74822 87.31663 36797 ft 496 kts 92°
2026-04-29 20:58 22.74372 87.39087 36795 ft 496 kts 92°
2026-04-29 20:59 22.73914 87.46570 36808 ft 497 kts 92°
2026-04-29 20:59 22.73455 87.54046 36808 ft 497 kts 92°
2026-04-29 21:00 22.72993 87.61487 36805 ft 498 kts 92°
2026-04-29 21:00 22.72527 87.68965 36813 ft 499 kts 92°
2026-04-29 21:01 22.72053 87.76489 36822 ft 500 kts 92°
2026-04-29 21:01 22.71576 87.84008 36817 ft 501 kts 92°
2026-04-29 21:02 22.71093 87.91545 36819 ft 501 kts 92°
2026-04-29 21:02 22.70610 87.99050 36823 ft 502 kts 92°
2026-04-29 21:03 22.70120 88.06607 36824 ft 503 kts 92°
2026-04-29 21:03 22.69627 88.14143 36825 ft 504 kts 92°
2026-04-29 21:04 22.69126 88.21759 36826 ft 505 kts 92°
2026-04-29 21:04 22.68626 88.29312 36828 ft 506 kts 92°
2026-04-29 21:05 22.68117 88.36934 36826 ft 507 kts 92°
2026-04-29 21:05 22.67544 88.44539 36826 ft 509 kts 96°
2026-04-29 21:06 22.66408 88.52117 36829 ft 511 kts 98°
2026-04-29 21:06 22.65150 88.59730 36825 ft 512 kts 98°
2026-04-29 21:07 22.63883 88.67277 36830 ft 513 kts 98°
2026-04-29 21:07 22.62608 88.74907 36808 ft 514 kts 98°
2026-04-29 21:08 22.61342 88.82501 36805 ft 515 kts 98°
2026-04-29 21:08 22.60067 88.90134 36814 ft 516 kts 98°
2026-04-29 21:09 22.58843 88.97783 36816 ft 516 kts 96°
2026-04-29 21:09 22.58012 89.05514 36812 ft 516 kts 94°
2026-04-29 21:10 22.57263 89.13258 36812 ft 517 kts 95°
2026-04-29 21:10 22.56456 89.20965 36811 ft 518 kts 95°
2026-04-29 21:11 22.55600 89.28723 36814 ft 519 kts 95°
2026-04-29 21:11 22.54730 89.36492 36814 ft 519 kts 95°
2026-04-29 21:12 22.53862 89.44214 36812 ft 520 kts 95°
2026-04-29 21:12 22.52987 89.51990 36806 ft 521 kts 96°
2026-04-29 21:13 22.52107 89.59774 36812 ft 522 kts 96°
2026-04-29 21:13 22.51219 89.67602 36812 ft 522 kts 96°
2026-04-29 21:14 22.50335 89.75357 36812 ft 522 kts 96°
2026-04-29 21:14 22.49441 89.83173 36816 ft 522 kts 96°
2026-04-29 21:15 22.48543 89.90980 36815 ft 523 kts 96°
2026-04-29 21:15 22.47645 89.98756 36809 ft 523 kts 96°
2026-04-29 21:16 22.46738 90.06577 36801 ft 523 kts 96°
2026-04-29 21:16 22.45833 90.14349 36799 ft 523 kts 96°
2026-04-29 21:17 22.44920 90.22156 36802 ft 523 kts 96°
2026-04-29 21:17 22.44007 90.29927 36801 ft 523 kts 96°
2026-04-29 21:18 22.43084 90.37757 36800 ft 523 kts 96°
2026-04-29 21:18 22.42166 90.45504 36802 ft 522 kts 96°
2026-04-29 21:19 22.41239 90.53300 36798 ft 522 kts 97°
2026-04-29 21:19 22.40308 90.61099 36794 ft 522 kts 97°
2026-04-29 21:20 22.39380 90.68839 36795 ft 521 kts 97°
2026-04-29 21:20 22.38448 90.76579 36801 ft 521 kts 97°
2026-04-29 21:21 22.37509 90.84347 36798 ft 521 kts 97°
2026-04-29 21:21 22.36566 90.92113 36802 ft 521 kts 97°
2026-04-29 21:22 22.35618 90.99890 36805 ft 521 kts 97°
2026-04-29 21:22 22.34671 91.07626 36808 ft 521 kts 97°
2026-04-29 21:23 22.33717 91.15396 36809 ft 521 kts 97°
2026-04-29 21:23 22.32757 91.23176 36810 ft 522 kts 98°
2026-04-29 21:24 22.31798 91.30914 36812 ft 522 kts 98°
2026-04-29 21:24 22.30830 91.38699 36818 ft 522 kts 98°
2026-04-29 21:25 22.29920 91.46445 36824 ft 523 kts 97°
2026-04-29 21:25 22.29045 91.54263 36825 ft 523 kts 97°
2026-04-29 21:26 22.28162 91.62069 36832 ft 524 kts 97°
2026-04-29 21:26 22.27268 91.69843 36830 ft 524 kts 97°
2026-04-29 21:27 22.26516 91.76331 36830 ft 524 kts 97°
2026-04-29 21:27 22.26225 91.85520 36834 ft 524 kts 83°
2026-04-29 21:28 22.27170 91.93279 36831 ft 524 kts 81°
2026-04-29 21:28 22.28288 92.01093 36832 ft 525 kts 81°
2026-04-29 21:29 22.29399 92.08845 36832 ft 525 kts 81°
2026-04-29 21:29 22.30491 92.16656 36833 ft 525 kts 81°
2026-04-29 21:30 22.31561 92.24427 36841 ft 525 kts 81°
2026-04-29 21:30 22.32639 92.32244 36841 ft 525 kts 81°
2026-04-29 21:31 22.33706 92.40062 36839 ft 525 kts 82°
2026-04-29 21:31 22.34760 92.47827 36842 ft 526 kts 82°
2026-04-29 21:32 22.35821 92.55658 36844 ft 526 kts 82°
2026-04-29 21:32 22.36882 92.63505 36853 ft 526 kts 82°
2026-04-29 21:33 22.37932 92.71296 36860 ft 526 kts 82°
2026-04-29 21:33 22.38981 92.79124 36869 ft 526 kts 82°
2026-04-29 21:34 22.40038 92.86956 36873 ft 526 kts 82°
2026-04-29 21:34 22.41087 92.94749 36882 ft 526 kts 82°
2026-04-29 21:35 22.42136 93.02582 36893 ft 525 kts 82°
2026-04-29 21:35 22.43178 93.10400 36913 ft 525 kts 82°
2026-04-29 21:36 22.44211 93.18173 36915 ft 525 kts 82°
2026-04-29 21:36 22.45072 93.24682 36920 ft 524 kts 82°
2026-04-29 21:37 22.46101 93.32492 36940 ft 524 kts 82°
2026-04-29 21:37 22.47121 93.40257 36931 ft 523 kts 82°
2026-04-29 21:38 22.48141 93.48051 36940 ft 523 kts 83°
2026-04-29 21:38 22.49160 93.55868 36930 ft 524 kts 83°
2026-04-29 21:39 22.50168 93.63630 36920 ft 524 kts 83°
2026-04-29 21:39 22.51180 93.71452 36904 ft 524 kts 83°
2026-04-29 21:40 22.52182 93.79223 36894 ft 524 kts 83°
2026-04-29 21:40 22.53190 93.87057 36882 ft 525 kts 83°
2026-04-29 21:41 22.54183 93.94840 36871 ft 525 kts 83°
2026-04-29 21:41 22.55182 94.02685 36860 ft 525 kts 83°
2026-04-29 21:42 22.56175 94.10515 36845 ft 526 kts 83°
2026-04-29 21:42 22.57162 94.18329 36847 ft 526 kts 83°
2026-04-29 21:43 22.58154 94.26206 36846 ft 527 kts 83°
2026-04-29 21:43 22.59141 94.34079 36836 ft 527 kts 83°
2026-04-29 21:44 22.60118 94.41910 36830 ft 528 kts 83°
2026-04-29 21:44 22.61098 94.49790 36841 ft 528 kts 83°
2026-04-29 21:45 22.62075 94.57684 36836 ft 529 kts 84°
2026-04-29 21:45 22.63043 94.65537 36831 ft 529 kts 84°
2026-04-29 21:46 22.64014 94.73451 36825 ft 530 kts 84°
2026-04-29 21:46 22.64984 94.81373 36821 ft 530 kts 84°
2026-04-29 21:47 22.65947 94.89285 36815 ft 530 kts 84°
2026-04-29 21:47 22.66904 94.97167 36822 ft 531 kts 84°
2026-04-29 21:48 22.67862 95.05103 36819 ft 531 kts 84°
2026-04-29 21:48 22.68818 95.13053 36821 ft 531 kts 84°
2026-04-29 21:49 22.69765 95.20960 36812 ft 531 kts 84°
2026-04-29 21:49 22.70713 95.28907 36814 ft 531 kts 84°
2026-04-29 21:50 22.71652 95.36816 36814 ft 531 kts 84°
2026-04-29 21:50 22.72592 95.44769 36820 ft 531 kts 84°
2026-04-29 21:51 22.73528 95.52718 36816 ft 531 kts 84°
2026-04-29 21:51 22.74918 95.64591 36814 ft 531 kts 84°
2026-04-29 21:52 22.75843 95.72536 36817 ft 531 kts 84°
2026-04-29 21:52 22.76768 95.80511 36821 ft 531 kts 84°
2026-04-29 21:53 22.77678 95.88398 36823 ft 531 kts 84°
2026-04-29 21:53 22.78594 95.96368 36829 ft 531 kts 84°
2026-04-29 21:54 22.79498 96.04272 36832 ft 531 kts 84°
2026-04-29 21:54 22.80404 96.12229 36841 ft 531 kts 84°
2026-04-29 21:55 22.81306 96.20183 36852 ft 531 kts 84°
2026-04-29 21:55 22.82199 96.28096 36862 ft 531 kts 84°
2026-04-29 21:56 22.83094 96.36050 36868 ft 530 kts 84°
2026-04-29 21:56 22.83978 96.43959 36878 ft 530 kts 84°
2026-04-29 21:57 22.84861 96.51890 36887 ft 530 kts 84°
2026-04-29 21:57 22.85741 96.59831 36892 ft 529 kts 84°
2026-04-29 21:58 22.86615 96.67754 36894 ft 529 kts 84°
2026-04-29 21:58 22.87481 96.75632 36903 ft 528 kts 84°
2026-04-29 21:59 22.88346 96.83548 36907 ft 528 kts 84°
2026-04-29 21:59 22.89207 96.91472 36912 ft 528 kts 84°
2026-04-29 22:00 22.90058 96.99334 36915 ft 527 kts 84°
2026-04-29 22:00 22.90912 97.07260 36921 ft 528 kts 84°
2026-04-29 22:01 22.91757 97.15136 36925 ft 527 kts 84°
2026-04-29 22:01 22.92605 97.23062 36925 ft 527 kts 84°
2026-04-29 22:02 22.93441 97.30933 36922 ft 528 kts 84°
2026-04-29 22:02 22.94279 97.38876 36924 ft 528 kts 84°
2026-04-29 22:03 22.95107 97.46746 36922 ft 528 kts 84°
2026-04-29 22:03 22.95937 97.54662 36919 ft 528 kts 84°
2026-04-29 22:04 22.96764 97.62584 36920 ft 529 kts 84°
2026-04-29 22:04 22.97591 97.70543 36924 ft 529 kts 84°
2026-04-29 22:05 22.99145 97.78329 36927 ft 528 kts 71°
2026-04-29 22:06 23.02878 97.89535 36936 ft 528 kts 69°
2026-04-29 22:06 23.05472 97.96998 36940 ft 528 kts 69°
2026-04-29 22:07 23.08053 98.04492 36944 ft 528 kts 69°
2026-04-29 22:07 23.10607 98.11970 36947 ft 528 kts 69°
2026-04-29 22:08 23.13140 98.19416 36956 ft 528 kts 69°
2026-04-29 22:08 23.15687 98.26915 36953 ft 528 kts 69°
2026-04-29 22:09 23.18216 98.34372 36959 ft 528 kts 69°
2026-04-29 22:09 23.20757 98.41878 36957 ft 528 kts 69°
2026-04-29 22:10 23.23296 98.49390 36961 ft 528 kts 69°
2026-04-29 22:10 23.25828 98.56894 36958 ft 528 kts 69°
2026-04-29 22:11 23.28339 98.64350 36956 ft 528 kts 69°
2026-04-29 22:11 23.30872 98.71884 36958 ft 528 kts 69°
2026-04-29 22:12 23.33383 98.79366 36962 ft 528 kts 69°
2026-04-29 22:12 23.35907 98.86899 36965 ft 528 kts 69°
2026-04-29 22:13 23.38407 98.94409 37069 ft 529 kts 69°
2026-04-29 22:13 23.40791 99.01996 37072 ft 528 kts 70°
2026-04-29 22:14 23.43116 99.09541 37075 ft 528 kts 70°
2026-04-29 22:14 23.45470 99.17141 37086 ft 529 kts 70°
2026-04-29 22:15 23.47833 99.24739 37088 ft 529 kts 70°
2026-04-29 22:15 23.50197 99.32333 37085 ft 528 kts 70°
2026-04-29 22:16 23.52618 99.39848 37089 ft 528 kts 65°
2026-04-29 22:16 23.55998 99.46948 37096 ft 526 kts 59°
2026-04-29 22:17 23.59594 99.53860 37102 ft 526 kts 58°
2026-04-29 22:17 23.63249 99.60799 37095 ft 526 kts 58°
2026-04-29 22:18 23.66858 99.67691 37107 ft 526 kts 58°
2026-04-29 22:18 23.70485 99.74660 37106 ft 527 kts 58°
2026-04-29 22:19 23.74107 99.81637 37111 ft 527 kts 58°
2026-04-29 22:19 23.77698 99.88566 37117 ft 528 kts 59°
2026-04-29 22:20 23.81319 99.95555 37100 ft 527 kts 58°
2026-04-29 22:20 23.84916 100.02508 37121 ft 528 kts 58°
2026-04-29 22:21 23.88534 100.09508 37105 ft 529 kts 58°
2026-04-29 22:21 23.92154 100.16529 37111 ft 529 kts 58°
2026-04-29 22:22 23.95762 100.23538 37126 ft 529 kts 58°
2026-04-29 22:22 23.99358 100.30529 37122 ft 530 kts 58°
2026-04-29 22:23 24.02980 100.37580 37135 ft 531 kts 58°
2026-04-29 22:23 24.05989 100.43447 37133 ft 531 kts 58°
2026-04-29 22:24 24.10190 100.51651 37146 ft 532 kts 58°
2026-04-29 22:24 24.13197 100.57541 37141 ft 532 kts 58°
2026-04-29 22:25 24.16780 100.64668 37151 ft 533 kts 59°
2026-04-29 22:25 24.20323 100.71762 37152 ft 534 kts 59°
2026-04-29 22:26 24.23907 100.78935 37161 ft 535 kts 59°
2026-04-29 22:26 24.27470 100.86069 37165 ft 535 kts 58°
2026-04-29 22:27 24.31048 100.93239 37174 ft 536 kts 58°
2026-04-29 22:27 24.34602 101.00373 37172 ft 536 kts 58°
2026-04-29 22:28 24.38183 101.07571 37183 ft 537 kts 58°
2026-04-29 22:28 24.41762 101.14776 37178 ft 537 kts 58°
2026-04-29 22:29 24.45322 101.21954 37189 ft 537 kts 58°
2026-04-29 22:29 24.48898 101.29175 37190 ft 538 kts 58°
2026-04-29 22:30 24.52461 101.36377 37187 ft 532 kts 59°
2026-04-29 22:30 24.55955 101.43462 37200 ft 528 kts 59°
2026-04-29 22:31 24.59458 101.50572 37200 ft 527 kts 59°
2026-04-29 22:31 24.62951 101.57668 37207 ft 528 kts 59°
2026-04-29 22:32 24.66390 101.64756 37215 ft 528 kts 60°
2026-04-29 22:32 24.69833 101.71908 37221 ft 528 kts 60°
2026-04-29 22:33 24.73262 101.79028 37228 ft 529 kts 60°
2026-04-29 22:33 24.76717 101.86196 37235 ft 528 kts 60°
2026-04-29 22:34 24.80152 101.93336 37240 ft 529 kts 60°
2026-04-29 22:34 24.83593 102.00501 37251 ft 528 kts 60°
2026-04-29 22:35 24.87009 102.07624 37256 ft 528 kts 60°
2026-04-29 22:35 24.90447 102.14803 37271 ft 528 kts 60°
2026-04-29 22:36 24.93856 102.21936 37282 ft 529 kts 60°
2026-04-29 22:36 24.97281 102.29112 37290 ft 529 kts 60°
2026-04-29 22:37 25.00692 102.36270 37299 ft 529 kts 59°
2026-04-29 22:37 25.04124 102.43482 37307 ft 530 kts 60°
2026-04-29 22:38 25.07590 102.50606 37318 ft 528 kts 55°
2026-04-29 22:38 25.12016 102.56996 37330 ft 523 kts 46°
2026-04-29 22:39 25.16744 102.63123 37341 ft 523 kts 45°
2026-04-29 22:39 25.21510 102.69215 37352 ft 523 kts 45°
2026-04-29 22:40 25.26232 102.75287 37356 ft 523 kts 45°
2026-04-29 22:40 25.30971 102.81410 37357 ft 523 kts 46°
2026-04-29 22:41 25.35712 102.87548 37360 ft 524 kts 46°
2026-04-29 22:41 25.40351 102.93779 37363 ft 526 kts 52°
2026-04-29 22:42 25.44460 103.00432 37353 ft 527 kts 53°
2026-04-29 22:42 25.48518 103.07230 37341 ft 528 kts 53°
2026-04-29 22:43 25.52534 103.13988 37357 ft 528 kts 53°
2026-04-29 22:43 25.56581 103.20789 37357 ft 528 kts 53°
2026-04-29 22:44 25.60633 103.27594 37358 ft 528 kts 53°
2026-04-29 22:44 25.64651 103.34349 37345 ft 528 kts 53°
2026-04-29 22:45 25.68696 103.41162 37336 ft 528 kts 53°
2026-04-29 22:45 25.72737 103.47977 37335 ft 528 kts 53°
2026-04-29 22:46 25.76745 103.54745 37331 ft 527 kts 53°
2026-04-29 22:46 25.80765 103.61545 37329 ft 526 kts 53°
2026-04-29 22:47 25.84790 103.68361 37328 ft 526 kts 53°
2026-04-29 22:47 25.88779 103.75129 37319 ft 526 kts 53°
2026-04-29 22:48 25.92784 103.81934 37316 ft 525 kts 53°
2026-04-29 22:48 25.96791 103.88751 37313 ft 525 kts 53°
2026-04-29 22:49 26.00804 103.95535 37305 ft 525 kts 52°
2026-04-29 22:49 26.04849 104.02283 37303 ft 524 kts 52°
2026-04-29 22:50 26.08873 104.09003 37297 ft 524 kts 52°
2026-04-29 22:50 26.12904 104.15761 37292 ft 523 kts 52°
2026-04-29 22:51 26.16926 104.22524 37287 ft 522 kts 52°
2026-04-29 22:51 26.22921 104.32622 37284 ft 522 kts 52°
2026-04-29 22:52 26.26898 104.39335 37279 ft 521 kts 52°
2026-04-29 22:52 26.30897 104.46091 37272 ft 521 kts 52°
2026-04-29 22:53 26.34886 104.52844 37269 ft 521 kts 52°
2026-04-29 22:53 26.38850 104.59563 37269 ft 520 kts 52°
2026-04-29 22:54 26.42830 104.66320 37260 ft 520 kts 52°
2026-04-29 22:54 26.46803 104.73076 37258 ft 520 kts 52°
2026-04-29 22:55 26.50758 104.79806 37255 ft 520 kts 52°
2026-04-29 22:55 26.54728 104.86574 37251 ft 520 kts 52°
2026-04-29 22:56 26.58693 104.93343 37252 ft 521 kts 52°
2026-04-29 22:56 26.62637 105.00087 37245 ft 521 kts 52°
2026-04-29 22:57 26.66066 105.07284 37248 ft 526 kts 61°
2026-04-29 22:57 26.69113 105.14748 37249 ft 526 kts 62°
2026-04-29 22:58 26.72083 105.22200 37255 ft 527 kts 62°
2026-04-29 22:58 26.75075 105.29710 37259 ft 528 kts 62°
2026-04-29 22:59 26.78057 105.37169 37259 ft 528 kts 62°
2026-04-29 22:59 26.81055 105.44669 37263 ft 528 kts 62°
2026-04-29 23:00 26.84055 105.52192 37264 ft 528 kts 62°
2026-04-29 23:00 26.87053 105.59722 37269 ft 529 kts 62°
2026-04-29 23:01 26.90032 105.67215 37274 ft 529 kts 62°
2026-04-29 23:01 26.93027 105.74771 37270 ft 529 kts 62°
2026-04-29 23:02 26.95996 105.82274 37278 ft 529 kts 62°
2026-04-29 23:02 26.98981 105.89828 37278 ft 529 kts 62°
2026-04-29 23:03 27.01965 105.97398 37284 ft 530 kts 62°
2026-04-29 23:03 27.04950 106.04964 37272 ft 529 kts 61°
2026-04-29 23:04 27.08243 106.12328 37297 ft 527 kts 57°
2026-04-29 23:04 27.11690 106.19602 37289 ft 528 kts 58°
2026-04-29 23:05 27.15071 106.26867 37293 ft 528 kts 58°
2026-04-29 23:05 27.18430 106.34218 37295 ft 528 kts 58°
2026-04-29 23:06 27.21754 106.41539 37299 ft 528 kts 58°
2026-04-29 23:06 27.25098 106.48911 37301 ft 529 kts 58°
2026-04-29 23:07 27.28439 106.56291 37301 ft 528 kts 58°
2026-04-29 23:07 27.31774 106.63665 37306 ft 528 kts 58°
2026-04-29 23:08 27.35089 106.71002 37309 ft 528 kts 58°
2026-04-29 23:08 27.38413 106.78385 37304 ft 528 kts 58°
2026-04-29 23:09 27.41721 106.85779 37304 ft 528 kts 58°
2026-04-29 23:09 27.45006 106.93127 37307 ft 529 kts 58°
2026-04-29 23:10 27.48307 107.00522 37303 ft 529 kts 58°
2026-04-29 23:10 27.51654 107.07944 37307 ft 528 kts 58°
2026-04-29 23:11 27.54988 107.15292 37306 ft 529 kts 58°
2026-04-29 23:11 27.58329 107.22684 37297 ft 529 kts 58°
2026-04-29 23:12 27.61102 107.28841 37298 ft 529 kts 58°
2026-04-29 23:12 27.64440 107.36248 37301 ft 529 kts 58°
2026-04-29 23:13 27.67753 107.43620 37301 ft 530 kts 58°
2026-04-29 23:13 27.71086 107.51051 37305 ft 531 kts 58°
2026-04-29 23:14 27.74418 107.58496 37301 ft 531 kts 58°
2026-04-29 23:14 27.77747 107.65948 37304 ft 531 kts 58°
2026-04-29 23:15 27.81054 107.73363 37306 ft 532 kts 58°
2026-04-29 23:15 27.84389 107.80837 37304 ft 532 kts 57°
2026-04-29 23:16 27.87788 107.88270 37307 ft 532 kts 57°
2026-04-29 23:16 27.91206 107.95703 37304 ft 532 kts 57°
2026-04-29 23:17 27.94585 108.03100 37307 ft 533 kts 57°
2026-04-29 23:17 27.97983 108.10571 37308 ft 533 kts 57°
2026-04-29 23:18 28.01374 108.18047 37308 ft 534 kts 57°
2026-04-29 23:18 28.04749 108.25501 37311 ft 535 kts 57°
2026-04-29 23:19 28.08144 108.33008 37310 ft 535 kts 57°
2026-04-29 23:19 28.11536 108.40522 37309 ft 536 kts 57°
2026-04-29 23:20 28.14939 108.48076 37309 ft 537 kts 57°
2026-04-29 23:20 28.18311 108.55578 37313 ft 537 kts 57°
2026-04-29 23:21 28.21715 108.63162 37314 ft 537 kts 57°
2026-04-29 23:21 28.25087 108.70682 37316 ft 538 kts 57°
2026-04-29 23:22 28.28477 108.78271 37318 ft 539 kts 57°
2026-04-29 23:22 28.31871 108.85881 37317 ft 540 kts 57°
2026-04-29 23:23 28.35268 108.93503 37320 ft 540 kts 57°
2026-04-29 23:23 28.38634 109.01073 37315 ft 540 kts 57°
2026-04-29 23:24 28.42032 109.08726 37299 ft 541 kts 57°
2026-04-29 23:24 28.45418 109.16367 37664 ft 541 kts 57°
2026-04-29 23:25 28.47103 109.20181 38018 ft 539 kts 57°
2026-04-29 23:25 28.48781 109.23994 38318 ft 538 kts 56°
2026-04-29 23:25 28.50456 109.27804 38609 ft 538 kts 56°
2026-04-29 23:25 28.52127 109.31611 38888 ft 537 kts 56°
2026-04-29 23:26 28.53798 109.35416 39109 ft 537 kts 56°
2026-04-29 23:26 28.55448 109.39174 39273 ft 539 kts 56°
2026-04-29 23:26 28.58643 109.46954 39312 ft 546 kts 61°
2026-04-29 23:27 28.61464 109.55013 39313 ft 548 kts 62°
2026-04-29 23:27 28.64208 109.63063 39308 ft 548 kts 62°
2026-04-29 23:28 28.66989 109.71153 39309 ft 548 kts 61°
2026-04-29 23:28 28.69893 109.79219 39306 ft 549 kts 61°
2026-04-29 23:29 28.72790 109.87225 39308 ft 550 kts 61°
2026-04-29 23:29 28.75692 109.95308 39310 ft 551 kts 61°
2026-04-29 23:30 28.78582 110.03413 39307 ft 551 kts 61°
2026-04-29 23:30 28.81455 110.11496 39311 ft 554 kts 61°
2026-04-29 23:31 28.84345 110.19642 39307 ft 553 kts 61°
2026-04-29 23:31 28.87233 110.27808 39300 ft 553 kts 61°
2026-04-29 23:32 28.90099 110.35926 39326 ft 554 kts 61°
2026-04-29 23:32 28.92971 110.44076 39313 ft 554 kts 60°
2026-04-29 23:33 28.95840 110.52220 39304 ft 555 kts 60°
2026-04-29 23:33 28.98714 110.60409 39305 ft 555 kts 60°
2026-04-29 23:34 29.01585 110.68617 39301 ft 555 kts 60°
2026-04-29 23:34 29.04450 110.76829 39301 ft 556 kts 60°
2026-04-29 23:35 29.07359 110.85011 39298 ft 556 kts 60°
2026-04-29 23:35 29.10267 110.93177 39300 ft 557 kts 60°
2026-04-29 23:36 29.13180 111.01414 39296 ft 557 kts 60°
2026-04-29 23:36 29.16065 111.09608 39300 ft 558 kts 60°
2026-04-29 23:37 29.18963 111.17860 39294 ft 558 kts 60°
2026-04-29 23:37 29.21860 111.26129 39294 ft 558 kts 60°
2026-04-29 23:38 29.24743 111.34378 39285 ft 559 kts 60°
2026-04-29 23:38 29.27630 111.42654 39292 ft 559 kts 60°
2026-04-29 23:39 29.30496 111.50891 39294 ft 560 kts 60°
2026-04-29 23:39 29.33382 111.59206 39289 ft 560 kts 60°
2026-04-29 23:40 29.36736 111.67163 39294 ft 545 kts 49°
2026-04-29 23:40 29.40773 111.74438 39287 ft 543 kts 47°
2026-04-29 23:41 29.44948 111.81690 39286 ft 543 kts 47°
2026-04-29 23:41 29.49104 111.88913 39286 ft 543 kts 47°
2026-04-29 23:42 29.53262 111.96189 39284 ft 544 kts 47°
2026-04-29 23:42 29.57379 112.03423 39285 ft 544 kts 47°
2026-04-29 23:43 29.61521 112.10717 39281 ft 544 kts 47°
2026-04-29 23:43 29.65667 112.18030 39286 ft 545 kts 47°
2026-04-29 23:44 29.69799 112.25330 39291 ft 545 kts 47°
2026-04-29 23:44 29.73920 112.32624 39287 ft 545 kts 47°
2026-04-29 23:45 29.78042 112.39968 39277 ft 546 kts 47°
2026-04-29 23:45 29.82139 112.47292 39286 ft 546 kts 47°
2026-04-29 23:46 29.86264 112.54678 39289 ft 547 kts 47°
2026-04-29 23:46 29.90385 112.62066 39289 ft 547 kts 48°
2026-04-29 23:47 29.94469 112.69402 39287 ft 548 kts 48°
2026-04-29 23:47 29.98598 112.76831 39287 ft 549 kts 48°
2026-04-29 23:48 30.02700 112.84227 39289 ft 549 kts 48°
2026-04-29 23:48 30.06829 112.91683 39278 ft 550 kts 49°
2026-04-29 23:49 30.10965 112.99169 39281 ft 551 kts 49°
2026-04-29 23:49 30.15060 113.06592 39284 ft 551 kts 49°
2026-04-29 23:50 30.19186 113.14086 39285 ft 552 kts 49°
2026-04-29 23:51 30.25372 113.25281 39284 ft 551 kts 49°
2026-04-29 23:51 30.29567 113.32718 39284 ft 551 kts 49°
2026-04-29 23:52 30.33759 113.40167 39286 ft 552 kts 50°
2026-04-29 23:52 30.37919 113.47601 39287 ft 552 kts 50°
2026-04-29 23:53 30.42102 113.55102 39287 ft 552 kts 50°
2026-04-29 23:53 30.46272 113.62597 39286 ft 552 kts 50°
2026-04-29 23:54 30.50418 113.70059 39287 ft 553 kts 51°
2026-04-29 23:54 30.54578 113.77561 39289 ft 553 kts 51°
2026-04-29 23:55 30.58718 113.85044 39286 ft 553 kts 51°
2026-04-29 23:55 30.62877 113.92575 39289 ft 553 kts 51°
2026-04-29 23:56 30.67003 114.00057 39287 ft 553 kts 51°
2026-04-29 23:56 30.71169 114.07606 39279 ft 553 kts 51°
2026-04-29 23:57 30.75327 114.15155 39288 ft 553 kts 51°
2026-04-29 23:57 30.79010 114.22999 39291 ft 561 kts 63°
2026-04-29 23:58 30.81471 114.30022 39287 ft 564 kts 64°
2026-04-29 23:58 30.84245 114.38594 39290 ft 565 kts 66°
2026-04-29 23:59 30.86954 114.47196 39291 ft 566 kts 66°
2026-04-29 23:59 30.89698 114.55746 39298 ft 566 kts 66°
2026-04-30 00:00 30.92472 114.64297 39299 ft 566 kts 66°
2026-04-30 00:00 30.95257 114.72889 39302 ft 567 kts 66°
2026-04-30 00:01 30.98046 114.81531 39307 ft 568 kts 66°
2026-04-30 00:01 31.00804 114.90104 39303 ft 568 kts 66°
2026-04-30 00:02 31.03576 114.98761 39300 ft 568 kts 66°
2026-04-30 00:02 31.06321 115.07347 39304 ft 569 kts 66°
2026-04-30 00:03 31.09092 115.16025 39311 ft 569 kts 67°
2026-04-30 00:03 31.11856 115.24707 39305 ft 569 kts 67°
2026-04-30 00:04 31.14592 115.33341 39305 ft 570 kts 67°
2026-04-30 00:04 31.17401 115.42017 39307 ft 570 kts 66°
2026-04-30 00:05 31.20204 115.50638 39308 ft 570 kts 66°
2026-04-30 00:05 31.23014 115.59332 39309 ft 571 kts 67°
2026-04-30 00:06 31.25796 115.67989 39308 ft 571 kts 67°
2026-04-30 00:06 31.28589 115.76712 39301 ft 571 kts 67°
2026-04-30 00:07 31.31374 115.85450 39305 ft 572 kts 68°
2026-04-30 00:07 31.34157 115.94141 39303 ft 573 kts 67°
2026-04-30 00:08 31.37012 116.02856 39306 ft 573 kts 67°
2026-04-30 00:08 31.39851 116.11529 39299 ft 573 kts 67°
2026-04-30 00:09 31.42687 116.20253 39300 ft 573 kts 68°
2026-04-30 00:09 31.45517 116.29011 39303 ft 574 kts 68°
2026-04-30 00:10 31.48343 116.37777 39300 ft 574 kts 68°
2026-04-30 00:10 31.51146 116.46496 39298 ft 575 kts 68°
2026-04-30 00:11 31.53970 116.55296 39295 ft 575 kts 68°
2026-04-30 00:11 31.56762 116.64026 39296 ft 575 kts 68°
2026-04-30 00:12 31.59578 116.72859 39298 ft 576 kts 68°
2026-04-30 00:12 31.62367 116.81629 39296 ft 576 kts 68°
2026-04-30 00:13 31.65161 116.90434 39294 ft 576 kts 69°
2026-04-30 00:13 31.67958 116.99275 39295 ft 577 kts 69°
2026-04-30 00:14 31.70727 117.08100 39293 ft 577 kts 69°
2026-04-30 00:14 31.73466 117.16998 39293 ft 578 kts 70°
2026-04-30 00:15 31.76144 117.25921 39287 ft 578 kts 74°
2026-04-30 00:15 31.76956 117.30474 39302 ft 577 kts 85°
2026-04-30 00:15 31.77104 117.35184 39304 ft 572 kts 95°
2026-04-30 00:16 31.76637 117.44525 39297 ft 572 kts 98°
2026-04-30 00:16 31.75941 117.53785 39300 ft 572 kts 99°
2026-04-30 00:17 31.75231 117.63143 39300 ft 573 kts 99°
2026-04-30 00:17 31.74557 117.72434 39302 ft 573 kts 98°
2026-04-30 00:18 31.73892 117.81772 39303 ft 573 kts 99°
2026-04-30 00:18 31.73219 117.91133 39304 ft 574 kts 99°
2026-04-30 00:19 31.72538 118.00487 39306 ft 574 kts 99°
2026-04-30 00:19 31.71854 118.09774 39306 ft 574 kts 99°
2026-04-30 00:20 31.71179 118.19132 39305 ft 575 kts 99°
2026-04-30 00:20 31.70537 118.28497 39314 ft 575 kts 99°
2026-04-30 00:21 31.69888 118.37854 39313 ft 575 kts 99°
2026-04-30 00:21 31.69223 118.47230 39313 ft 575 kts 99°
2026-04-30 00:22 31.68552 118.56542 39314 ft 575 kts 99°
2026-04-30 00:22 31.67869 118.65904 39309 ft 575 kts 100°
2026-04-30 00:23 31.67184 118.75225 39313 ft 575 kts 100°
2026-04-30 00:23 31.66486 118.84618 39310 ft 575 kts 100°
2026-04-30 00:24 31.65788 118.93931 39310 ft 575 kts 100°
2026-04-30 00:24 31.65083 119.03297 39310 ft 575 kts 100°
2026-04-30 00:25 31.64488 119.12698 39313 ft 577 kts 98°
2026-04-30 00:25 31.64082 119.22063 39313 ft 578 kts 98°
2026-04-30 00:26 31.63709 119.31505 39315 ft 578 kts 98°
2026-04-30 00:26 31.63304 119.40887 39312 ft 578 kts 98°
2026-04-30 00:27 31.62863 119.50322 39310 ft 578 kts 99°
2026-04-30 00:27 31.62403 119.59702 39308 ft 578 kts 99°
2026-04-30 00:28 31.61939 119.69133 39310 ft 578 kts 99°
2026-04-30 00:28 31.61504 119.78539 39302 ft 579 kts 99°
2026-04-30 00:29 31.61072 119.87999 39299 ft 579 kts 99°
2026-04-30 00:29 31.60633 119.97398 39308 ft 579 kts 99°
2026-04-30 00:30 31.60181 120.06843 39296 ft 579 kts 99°
2026-04-30 00:30 31.59723 120.16247 39299 ft 579 kts 99°
2026-04-30 00:31 31.59256 120.25710 39291 ft 580 kts 99°
2026-04-30 00:31 31.57980 120.34901 39299 ft 562 kts 115°
2026-04-30 00:32 31.55563 120.43596 39294 ft 560 kts 118°
2026-04-30 00:32 31.52961 120.52195 39294 ft 559 kts 118°
2026-04-30 00:33 31.50341 120.60802 39285 ft 560 kts 118°
2026-04-30 00:33 31.47761 120.69350 39291 ft 560 kts 118°
2026-04-30 00:34 31.45159 120.77994 39298 ft 561 kts 118°
2026-04-30 00:34 31.42576 120.86562 39290 ft 561 kts 118°
2026-04-30 00:35 31.39966 120.95190 39286 ft 561 kts 119°
2026-04-30 00:35 31.37369 121.03749 39279 ft 561 kts 119°
2026-04-30 00:36 31.34748 121.12362 39279 ft 561 kts 119°
2026-04-30 00:36 31.32089 121.20944 39274 ft 558 kts 121°
2026-04-30 00:36 31.30369 121.24942 39284 ft 538 kts 134°
2026-04-30 00:37 31.28137 121.28256 39283 ft 514 kts 148°
2026-04-30 00:37 31.25445 121.30851 39282 ft 488 kts 161°
2026-04-30 00:37 31.22486 121.32625 39279 ft 465 kts 173°
2026-04-30 00:37 31.19465 121.33593 39280 ft 445 kts 184°
2026-04-30 00:38 31.16412 121.34119 39279 ft 447 kts 182°
2026-04-30 00:38 31.13327 121.34932 39279 ft 459 kts 176°
2026-04-30 00:38 31.10259 121.36238 39279 ft 476 kts 168°
2026-04-30 00:38 31.07352 121.38125 39277 ft 495 kts 158°
2026-04-30 00:39 31.04626 121.40714 39277 ft 516 kts 147°
2026-04-30 00:39 31.02257 121.43979 39276 ft 537 kts 135°
2026-04-30 00:39 31.00391 121.47857 39270 ft 558 kts 123°
2026-04-30 00:39 30.99163 121.52221 39268 ft 576 kts 110°
2026-04-30 00:40 30.98683 121.56865 39270 ft 590 kts 96°
2026-04-30 00:40 30.99015 121.61672 39270 ft 601 kts 82°
2026-04-30 00:40 31.00146 121.66368 39280 ft 605 kts 72°
2026-04-30 00:41 31.03134 121.75584 39284 ft 607 kts 69°
2026-04-30 00:41 31.04417 121.80216 39287 ft 604 kts 80°
2026-04-30 00:41 31.05006 121.85048 39284 ft 594 kts 94°
2026-04-30 00:42 31.04350 121.94478 39280 ft 582 kts 105°
2026-04-30 00:42 31.03067 122.03795 39280 ft 581 kts 108°
2026-04-30 00:43 31.01687 122.13110 39273 ft 581 kts 107°
2026-04-30 00:43 31.00369 122.22365 39269 ft 583 kts 106°
2026-04-30 00:44 30.99966 122.31873 39267 ft 591 kts 96°
2026-04-30 00:44 30.99939 122.41474 39261 ft 592 kts 95°
2026-04-30 00:45 30.99986 122.51080 39260 ft 591 kts 95°
2026-04-30 00:45 31.00007 122.60608 39258 ft 590 kts 96°
2026-04-30 00:46 31.00007 122.70192 39256 ft 590 kts 96°
2026-04-30 00:46 31.00011 122.78140 39253 ft 589 kts 96°
2026-04-30 00:47 31.00010 122.87699 39248 ft 589 kts 96°
2026-04-30 00:47 31.00557 122.97261 39246 ft 598 kts 80°
2026-04-30 00:47 31.01789 123.01855 39243 ft 601 kts 67°
2026-04-30 00:48 31.03778 123.06151 39250 ft 599 kts 56°
2026-04-30 00:48 31.08471 123.14147 39244 ft 600 kts 52°
2026-04-30 00:49 31.13422 123.22040 39243 ft 601 kts 52°
2026-04-30 00:49 31.18351 123.29950 39244 ft 601 kts 52°
2026-04-30 00:50 31.23190 123.37848 39241 ft 602 kts 53°
2026-04-30 00:50 31.28056 123.45856 39231 ft 602 kts 53°
2026-04-30 00:51 31.32873 123.53802 39235 ft 602 kts 53°
2026-04-30 00:51 31.37747 123.61805 39231 ft 602 kts 53°
2026-04-30 00:52 31.42609 123.69749 39233 ft 602 kts 53°
2026-04-30 00:52 31.47494 123.77748 39229 ft 602 kts 53°
2026-04-30 00:53 31.52336 123.85704 39226 ft 602 kts 53°
2026-04-30 00:53 31.57197 123.93712 39225 ft 602 kts 53°
2026-04-30 00:54 31.61287 124.02207 39225 ft 599 kts 73°
2026-04-30 00:54 31.63708 124.11547 39219 ft 597 kts 78°
2026-04-30 00:55 31.65777 124.20937 39215 ft 596 kts 79°
2026-04-30 00:55 31.68832 124.35118 39213 ft 595 kts 79°
2026-04-30 00:56 31.70891 124.44488 39214 ft 595 kts 79°
2026-04-30 00:56 31.72964 124.53889 39208 ft 594 kts 79°
2026-04-30 00:57 31.75022 124.63255 39203 ft 593 kts 79°
2026-04-30 00:57 31.77078 124.72666 39202 ft 593 kts 79°
2026-04-30 00:58 31.79115 124.82029 39204 ft 593 kts 79°
2026-04-30 00:58 31.81154 124.91437 39191 ft 592 kts 79°
2026-04-30 00:59 31.82395 125.00878 39198 ft 578 kts 97°
2026-04-30 00:59 31.82059 125.05527 39190 ft 567 kts 106°
2026-04-30 00:59 31.81448 125.10123 39187 ft 565 kts 108°
2026-04-30 01:00 31.79980 125.19142 39186 ft 564 kts 110°
2026-04-30 01:00 31.78424 125.28184 39181 ft 564 kts 110°
2026-04-30 01:01 31.76893 125.37257 39180 ft 565 kts 109°
2026-04-30 01:01 31.75386 125.46321 39173 ft 565 kts 109°
2026-04-30 01:02 31.73890 125.55331 39175 ft 565 kts 109°
2026-04-30 01:02 31.72685 125.64492 39169 ft 576 kts 98°
2026-04-30 01:03 31.72888 125.69234 39166 ft 585 kts 85°
2026-04-30 01:03 31.73671 125.73949 39164 ft 588 kts 81°
2026-04-30 01:03 31.75672 125.83311 39162 ft 591 kts 78°
2026-04-30 01:04 31.77814 125.92578 39162 ft 591 kts 78°
2026-04-30 01:04 31.79926 126.01934 39156 ft 590 kts 79°
2026-04-30 01:05 31.81976 126.11289 39152 ft 590 kts 79°
2026-04-30 01:05 31.83990 126.20586 39148 ft 589 kts 79°
2026-04-30 01:06 31.86021 126.29993 39145 ft 589 kts 79°
2026-04-30 01:06 31.88027 126.39291 39141 ft 589 kts 79°
2026-04-30 01:07 31.90039 126.48654 39137 ft 589 kts 79°
2026-04-30 01:07 31.92081 126.57991 39133 ft 589 kts 79°
2026-04-30 01:08 31.94155 126.67338 39136 ft 588 kts 79°
2026-04-30 01:08 31.96200 126.76602 39132 ft 588 kts 79°
2026-04-30 01:09 31.98251 126.85963 39129 ft 588 kts 79°
2026-04-30 01:09 32.00274 126.95247 39131 ft 587 kts 79°
2026-04-30 01:10 32.02292 127.04543 39130 ft 587 kts 79°
2026-04-30 01:10 32.04658 127.13776 39136 ft 591 kts 70°
2026-04-30 01:11 32.07854 127.22658 39126 ft 591 kts 68°
2026-04-30 01:11 32.11220 127.31547 39131 ft 592 kts 68°
2026-04-30 01:12 32.14573 127.40372 39124 ft 592 kts 68°
2026-04-30 01:12 32.17913 127.49246 39124 ft 592 kts 68°
2026-04-30 01:13 32.21228 127.58117 39123 ft 592 kts 68°
2026-04-30 01:13 32.24546 127.67026 39122 ft 592 kts 68°
2026-04-30 01:14 32.27860 127.75944 39122 ft 591 kts 68°
2026-04-30 01:14 32.31150 127.84818 39117 ft 591 kts 68°
2026-04-30 01:15 32.34455 127.93753 39127 ft 591 kts 69°
2026-04-30 01:15 32.37726 128.02621 39107 ft 591 kts 69°
2026-04-30 01:16 32.41007 128.11540 39122 ft 591 kts 69°
2026-04-30 01:16 32.44284 128.20470 39120 ft 590 kts 69°
2026-04-30 01:17 32.47533 128.29349 39118 ft 590 kts 69°
2026-04-30 01:17 32.50796 128.38289 39116 ft 590 kts 69°
2026-04-30 01:18 32.54032 128.47180 39108 ft 590 kts 69°
2026-04-30 01:18 32.57274 128.56111 39101 ft 589 kts 69°
2026-04-30 01:19 32.60506 128.65036 39096 ft 589 kts 69°
2026-04-30 01:19 32.63719 128.73934 39089 ft 588 kts 69°
2026-04-30 01:20 32.66935 128.82864 39094 ft 588 kts 69°
2026-04-30 01:20 32.69918 128.91887 39091 ft 586 kts 73°
2026-04-30 01:21 32.72622 129.01017 39097 ft 585 kts 74°
2026-04-30 01:21 32.75320 129.10080 39100 ft 585 kts 73°
2026-04-30 01:22 32.78086 129.19180 39100 ft 585 kts 73°
2026-04-30 01:22 32.80878 129.28304 39094 ft 585 kts 73°
2026-04-30 01:23 32.83640 129.37354 39094 ft 584 kts 73°
2026-04-30 01:23 32.86404 129.46452 39089 ft 584 kts 73°
2026-04-30 01:24 32.89162 129.55562 39091 ft 583 kts 73°
2026-04-30 01:24 32.91886 129.64592 39092 ft 583 kts 73°
2026-04-30 01:25 32.94624 129.73690 39089 ft 583 kts 74°
2026-04-30 01:25 32.97345 129.82761 39092 ft 583 kts 74°
2026-04-30 01:26 33.00061 129.91843 39093 ft 582 kts 74°
2026-04-30 01:26 33.02757 130.00882 39093 ft 581 kts 74°
2026-04-30 01:27 33.05462 130.09983 39012 ft 581 kts 74°
2026-04-30 01:27 33.08160 130.19083 39016 ft 581 kts 74°
2026-04-30 01:28 33.10835 130.28127 39021 ft 580 kts 74°
2026-04-30 01:28 33.13509 130.37213 39019 ft 579 kts 74°
2026-04-30 01:29 33.16168 130.46283 39018 ft 578 kts 74°
2026-04-30 01:29 33.18819 130.55345 39012 ft 578 kts 75°
2026-04-30 01:30 33.21454 130.64379 39005 ft 578 kts 75°
2026-04-30 01:30 33.24081 130.73408 39005 ft 578 kts 75°
2026-04-30 01:31 33.26705 130.82485 39011 ft 577 kts 75°
2026-04-30 01:31 33.29331 130.91576 39018 ft 577 kts 75°
2026-04-30 01:32 33.31957 131.00679 39030 ft 578 kts 75°
2026-04-30 01:32 33.34564 131.09750 39037 ft 578 kts 75°
2026-04-30 01:33 33.37155 131.18804 39043 ft 578 kts 75°
2026-04-30 01:33 33.39756 131.27919 39052 ft 578 kts 75°
2026-04-30 01:34 33.42356 131.37060 39059 ft 578 kts 75°
2026-04-30 01:34 33.44934 131.46137 39068 ft 579 kts 75°
2026-04-30 01:35 33.47079 131.53742 39076 ft 579 kts 75°
2026-04-30 01:35 33.49649 131.62881 39077 ft 578 kts 75°
2026-04-30 01:36 33.52222 131.72055 39076 ft 579 kts 75°
2026-04-30 01:36 33.54764 131.81142 39076 ft 579 kts 75°
2026-04-30 01:37 33.57322 131.90307 39074 ft 579 kts 75°
2026-04-30 01:37 33.59876 131.99491 39076 ft 579 kts 75°
2026-04-30 01:38 33.62418 132.08662 39077 ft 579 kts 76°
2026-04-30 01:38 33.63671 132.13196 38937 ft 579 kts 76°
2026-04-30 01:38 33.64937 132.17782 38698 ft 579 kts 76°
2026-04-30 01:39 33.66203 132.22375 38424 ft 579 kts 76°
2026-04-30 01:39 33.67464 132.26966 38181 ft 579 kts 76°
2026-04-30 01:39 33.68720 132.31540 37738 ft 575 kts 76°
2026-04-30 01:39 33.69972 132.36104 37138 ft 574 kts 76°
2026-04-30 01:40 33.71220 132.40666 36494 ft 574 kts 76°
2026-04-30 01:40 33.72468 132.45237 35848 ft 575 kts 76°
2026-04-30 01:40 33.73710 132.49793 35177 ft 575 kts 76°
2026-04-30 01:40 33.74942 132.54321 34451 ft 577 kts 76°
2026-04-30 01:41 33.76187 132.58904 33697 ft 578 kts 75°
2026-04-30 01:41 33.77434 132.63502 32862 ft 579 kts 75°
2026-04-30 01:41 33.78681 132.68107 32022 ft 580 kts 75°
2026-04-30 01:41 33.79929 132.72717 31205 ft 580 kts 75°
2026-04-30 01:42 33.81181 132.77352 30371 ft 581 kts 74°
2026-04-30 01:42 33.82426 132.81969 29478 ft 581 kts 74°
2026-04-30 01:42 33.83669 132.86581 28757 ft 577 kts 74°
2026-04-30 01:42 33.84898 132.91153 28123 ft 572 kts 73°
2026-04-30 01:43 33.86104 132.95694 27541 ft 565 kts 75°
2026-04-30 01:43 33.87192 133.00146 26919 ft 558 kts 76°
2026-04-30 01:43 33.88220 133.04630 26370 ft 552 kts 76°
2026-04-30 01:43 33.89216 133.09071 25765 ft 547 kts 76°
2026-04-30 01:44 33.90206 133.13488 25177 ft 543 kts 76°
2026-04-30 01:44 33.91193 133.17850 24595 ft 538 kts 76°
2026-04-30 01:44 33.92187 133.22201 24007 ft 534 kts 76°
2026-04-30 01:44 33.93174 133.26491 23381 ft 530 kts 76°
2026-04-30 01:45 33.94157 133.30751 22766 ft 524 kts 75°
2026-04-30 01:45 33.95115 133.34898 22178 ft 514 kts 75°
2026-04-30 01:45 33.96065 133.39010 21617 ft 493 kts 75°
2026-04-30 01:45 33.96966 133.42924 21092 ft 489 kts 75°
2026-04-30 01:46 33.97871 133.46870 20532 ft 485 kts 75°
2026-04-30 01:46 33.98765 133.50774 19982 ft 482 kts 75°
2026-04-30 01:46 33.99651 133.54652 19422 ft 478 kts 75°
2026-04-30 01:46 34.00531 133.58511 18876 ft 474 kts 75°
2026-04-30 01:47 34.01402 133.62328 18302 ft 470 kts 75°
2026-04-30 01:47 34.02262 133.66104 17700 ft 466 kts 75°
2026-04-30 01:47 34.03118 133.69858 17113 ft 460 kts 75°
2026-04-30 01:47 34.03950 133.73511 16576 ft 455 kts 75°
2026-04-30 01:48 34.04784 133.77178 16023 ft 451 kts 75°
2026-04-30 01:48 34.05410 133.80859 15449 ft 446 kts 84°
2026-04-30 01:48 34.05745 133.84568 14901 ft 441 kts 86°
2026-04-30 01:48 34.06021 133.88236 14347 ft 438 kts 87°
2026-04-30 01:49 34.06281 133.91844 14188 ft 423 kts 87°
2026-04-30 01:49 34.06526 133.95327 14058 ft 408 kts 87°
2026-04-30 01:49 34.06763 133.98675 13943 ft 394 kts 88°
2026-04-30 01:49 34.06988 134.01917 13813 ft 381 kts 88°
2026-04-30 01:50 34.07198 134.05044 13675 ft 368 kts 88°
2026-04-30 01:50 34.07397 134.08043 13534 ft 356 kts 88°
2026-04-30 01:50 34.07592 134.10978 13403 ft 345 kts 88°
2026-04-30 01:50 34.07779 134.13824 13268 ft 335 kts 88°
2026-04-30 01:51 34.07962 134.16587 13113 ft 327 kts 88°
2026-04-30 01:51 34.08142 134.19303 12875 ft 321 kts 88°
2026-04-30 01:51 34.08317 134.21970 12602 ft 318 kts 88°
2026-04-30 01:51 34.08439 134.24620 12325 ft 313 kts 92°
2026-04-30 01:52 34.08464 134.27210 12141 ft 306 kts 93°
2026-04-30 01:52 34.08484 134.29742 11920 ft 303 kts 92°
2026-04-30 01:52 34.08514 134.32306 11672 ft 301 kts 92°
2026-04-30 01:52 34.08549 134.34819 11429 ft 298 kts 92°
2026-04-30 01:53 34.08587 134.37272 11186 ft 296 kts 92°
2026-04-30 01:53 34.08681 134.39755 10944 ft 295 kts 85°
2026-04-30 01:53 34.09069 134.42182 10711 ft 294 kts 79°
2026-04-30 01:53 34.09550 134.44562 10475 ft 291 kts 78°
2026-04-30 01:54 34.10033 134.46931 10271 ft 286 kts 79°
2026-04-30 01:54 34.10502 134.49250 10135 ft 284 kts 79°
2026-04-30 01:54 34.10966 134.51569 9916 ft 284 kts 79°
2026-04-30 01:54 34.11421 134.53856 9642 ft 282 kts 79°
2026-04-30 01:55 34.11878 134.56155 9361 ft 280 kts 79°
2026-04-30 01:55 34.12331 134.58436 9099 ft 278 kts 79°
2026-04-30 01:55 34.12780 134.60700 8826 ft 276 kts 79°
2026-04-30 01:55 34.13223 134.62941 8559 ft 273 kts 79°
2026-04-30 01:56 34.13656 134.65136 8291 ft 271 kts 79°
2026-04-30 01:56 34.14091 134.67346 8036 ft 269 kts 79°
2026-04-30 01:56 34.14523 134.69533 7776 ft 267 kts 79°
2026-04-30 01:56 34.14983 134.71689 7511 ft 265 kts 74°
2026-04-30 01:57 34.15741 134.73714 7275 ft 264 kts 64°
2026-04-30 01:57 34.16628 134.75660 7016 ft 263 kts 63°
2026-04-30 01:57 34.17517 134.77587 6756 ft 262 kts 63°
2026-04-30 01:57 34.18398 134.79510 6496 ft 260 kts 63°
2026-04-30 01:58 34.19255 134.81392 6232 ft 259 kts 64°
2026-04-30 01:58 34.20120 134.83298 5979 ft 257 kts 64°
2026-04-30 01:58 34.20980 134.85193 5727 ft 257 kts 64°
2026-04-30 01:58 34.21839 134.87088 5465 ft 256 kts 64°
2026-04-30 01:59 34.23546 134.90864 4956 ft 256 kts 64°
2026-04-30 01:59 34.24341 134.92778 4687 ft 253 kts 76°
2026-04-30 01:59 34.24789 134.94785 4431 ft 252 kts 72°
2026-04-30 02:00 34.25867 134.96455 4241 ft 255 kts 42°
2026-04-30 02:00 34.27221 134.97863 4002 ft 255 kts 43°
2026-04-30 02:00 34.28493 134.99346 3949 ft 253 kts 49°
2026-04-30 02:00 34.29658 135.00953 3945 ft 254 kts 53°
2026-04-30 02:01 34.30758 135.02594 3889 ft 254 kts 53°
2026-04-30 02:01 34.31867 135.04253 3593 ft 252 kts 53°
2026-04-30 02:01 34.32979 135.05900 3211 ft 251 kts 52°
2026-04-30 02:01 34.34059 135.07503 2828 ft 239 kts 53°
2026-04-30 02:02 34.35077 135.09025 2494 ft 227 kts 53°
2026-04-30 02:02 34.36045 135.10465 2212 ft 212 kts 53°
2026-04-30 02:02 34.36930 135.11783 1930 ft 191 kts 53°
2026-04-30 02:02 34.37726 135.12969 1672 ft 173 kts 53°
2026-04-30 02:03 34.38439 135.14034 1448 ft 158 kts 53°
2026-04-30 02:03 34.39102 135.15024 1235 ft 146 kts 53°
2026-04-30 02:03 34.39716 135.15939 1045 ft 135 kts 52°
2026-04-30 02:03 34.40299 135.16809 859 ft 131 kts 52°
2026-04-30 02:04 34.40865 135.17655 683 ft 128 kts 51°
2026-04-30 02:04 34.41424 135.18489 512 ft 127 kts 51°
2026-04-30 02:04 34.41980 135.19320 332 ft 127 kts 50°
2026-04-30 02:04 34.42532 135.20131 174 ft 126 kts 49°
2026-04-30 02:05 34.43087 135.20956 46 ft 125 kts 50°
2026-04-30 02:05 34.43574 135.21683 34 ft 86 kts 51°
2026-04-30 02:05 34.43772 135.21982 32 ft 20 kts 51°
2026-04-30 02:05 34.43853 135.22102 33 ft 16 kts 51°
2026-04-30 02:06 34.43914 135.22193 36 ft 12 kts 51°
2026-04-30 02:06 34.43961 135.22263 36 ft 10 kts 51°
2026-04-30 02:06 34.44003 135.22326 36 ft 10 kts 51°
2026-04-30 02:06 34.44049 135.22414 37 ft 12 kts 65°
2026-04-30 02:07 34.44076 135.22495 39 ft 9 kts 70°
2026-04-30 02:07 34.44091 135.22569 39 ft 9 kts 79°
2026-04-30 02:07 34.44101 135.22645 38 ft 9 kts 81°
2026-04-30 02:07 34.44093 135.22716 38 ft 8 kts 130°
2026-04-30 02:08 34.44047 135.22722 38 ft 6 kts 200°
2026-04-30 02:08 34.44018 135.22692 38 ft 5 kts 227°
2026-04-30 02:08 34.44000 135.22665 39 ft 3 kts 231°
2026-04-30 02:08 34.43982 135.22639 40 ft 8 kts 231°
2026-04-30 02:09 34.43921 135.22549 39 ft 18 kts 231°
2026-04-30 02:09 34.43838 135.22426 38 ft 18 kts 224°
2026-04-30 02:09 34.43747 135.22440 37 ft 15 kts 146°
2026-04-30 02:09 34.43666 135.22520 36 ft 15 kts 140°
2026-04-30 02:10 34.43586 135.22600 36 ft 15 kts 140°
2026-04-30 02:10 34.43506 135.22679 35 ft 15 kts 141°
2026-04-30 02:10 34.43417 135.22764 37 ft 19 kts 141°
2026-04-30 02:10 34.43301 135.22877 36 ft 25 kts 142°
2026-04-30 02:11 34.43149 135.23026 29 ft 30 kts 140°
2026-04-30 02:11 34.42984 135.23187 23 ft 29 kts 143°
2026-04-30 02:11 34.42913 135.23289 17 ft 7 kts 93°
2026-04-30 02:11 34.42929 135.23332 18 ft 4 kts 50°
2026-04-30 02:12 34.42947 135.23358 18 ft 4 kts 50°
2026-04-30 02:12 34.42974 135.23398 19 ft 9 kts 51°
2026-04-30 02:12 34.43017 135.23478 17 ft 12 kts 70°
2026-04-30 02:12 34.42985 135.23553 18 ft 10 kts 142°
2026-04-30 02:13 34.42930 135.23604 18 ft 10 kts 143°
2026-04-30 02:13 34.42880 135.23654 19 ft 9 kts 140°
2026-04-30 02:13 34.42834 135.23699 20 ft 8 kts 140°
2026-04-30 02:13 34.42792 135.23744 20 ft 8 kts 133°
2026-04-30 02:14 34.42782 135.23802 20 ft 7 kts 80°
2026-04-30 02:14 34.42802 135.23848 21 ft 6 kts 52°
2026-04-30 02:14 34.42824 135.23882 21 ft 5 kts 52°
2026-04-30 02:14 34.42844 135.23904 21 ft 4 kts 28°
2026-04-30 02:15 34.42866 135.23895 21 ft 5 kts 326°
2026-04-30 02:15 34.42909 135.23853 21 ft 0 kts 319°
2026-04-30 02:15 34.42909 135.23852 21 ft 0 kts 317°
2026-04-30 02:15 34.42910 135.23852 21 ft 0 kts 318°
2026-04-30 02:16 34.42910 135.23851 21 ft 0 kts 317°